[{"header": {"dx": 0.06612293990616946, "dy": 0.0552356325346848, "nx": 98, "ny": 59, "la1": 35.046912555036876, "la2": 31.78801023549047, "lo1": -121.43107172385933, "lo2": -114.95102361305473, "refTime": "2026040623", "parameterCategory": 1, "parameterNumber": 2}, "data": [8.19, 8.19, 8.19, 8.19, 8.19, 8.45, 8.45, 8.45, 8.73, 8.73, 8.65, 8.82, 10.32, 10.18, 9.49, 9.21, 9.34, 8.94, 9.39, 8.94, 8.82, 8.85, 8.33, 7.76, 3.72, 0.0, -1.03, -3.22, -3.22, -3.22, -2.16, -2.16, -1.05, 0.0, 1.05, 2.16, 3.22, 3.91, 4.74, 5.49, 5.82, 6.91, 8.18, 8.73, 10.24, 11.04, 12.27, 12.27, 11.83, 11.2, 10.55, 10.32, 10.6, 10.45, 11.05, 11.14, 11.18, 11.18, 11.18, 11.18, 10.7, 10.25, 9.7, 9.24, 8.56, 8.29, 7.85, 7.81, 9.11, 10.65, 11.09, 10.28, 9.83, 9.83, 9.74, 9.83, 10.73, 11.18, 11.18, 9.39, 8.05, 7.01, 6.07, 4.66, 2.8, 2.8, 4.02, 4.92, 5.81, 7.15, 7.5, 6.71, 6.26, 6.26, 6.26, 6.26, 6.26, 5.36, 8.19, 8.19, 8.19, 8.19, 8.19, 8.45, 8.45, 8.73, 8.15, 8.15, 8.08, 9.04, 9.42, 9.2, 10.46, 9.97, 8.73, 9.74, 9.29, 7.85, 8.91, 8.06, 7.6, 6.98, 3.55, 0.0, -1.98, -2.8, -2.8, -3.0, -1.98, -1.98, -1.03, 0.0, 1.03, 2.12, 3.2, 3.97, 4.58, 5.37, 6.01, 7.56, 7.59, 8.64, 9.96, 10.9, 11.28, 10.9, 10.63, 10.0, 10.32, 10.32, 10.32, 10.32, 10.52, 11.51, 11.15, 11.18, 11.18, 11.18, 10.73, 10.25, 9.8, 9.35, 8.8, 8.45, 8.44, 8.44, 9.33, 10.22, 11.18, 10.73, 10.28, 9.83, 9.83, 9.83, 10.73, 11.18, 11.18, 9.39, 8.05, 7.01, 6.07, 4.66, 2.8, 2.8, 4.02, 4.92, 5.81, 7.15, 7.5, 6.71, 6.26, 6.26, 6.26, 6.26, 6.26, 5.36, 8.19, 8.19, 8.19, 8.19, 8.19, 8.45, 8.45, 8.49, 8.15, 7.81, 7.51, 7.44, 9.43, 9.42, 8.95, 9.24, 9.24, 9.66, 9.42, 9.46, 8.06, 8.91, 8.06, 5.69, 2.99, 0.0, -1.72, -3.0, -3.0, -2.64, -1.96, -1.96, -1.01, 0.0, 0.95, 2.99, 2.99, 3.4, 4.26, 5.1, 6.24, 7.59, 8.12, 8.76, 9.8, 10.24, 9.66, 9.43, 9.03, 9.36, 9.36, 9.77, 9.9, 10.18, 10.32, 11.06, 11.51, 11.59, 11.18, 11.18, 10.73, 10.28, 9.83, 9.39, 8.94, 8.9, 8.45, 8.9, 9.33, 10.28, 11.18, 11.18, 10.73, 10.73, 10.28, 10.2, 10.62, 11.51, 10.32, 8.91, 7.47, 7.37, 6.0, 3.79, 1.13, 0.85, 3.35, 4.98, 6.36, 8.06, 8.82, 7.94, 6.71, 6.26, 6.26, 6.26, 6.17, 5.29, 7.59, 8.19, 8.19, 8.19, 8.19, 8.19, 8.19, 8.49, 8.15, 7.55, 7.23, 7.25, 9.04, 8.67, 9.42, 9.42, 9.42, 10.17, 9.77, 9.24, 8.99, 9.46, 9.03, 7.2, 3.55, 0.0, -1.84, -1.84, -1.84, -1.73, -1.73, -0.94, -0.94, 0.0, 0.0, 1.4, 2.83, 4.4, 4.4, 5.14, 6.7, 8.3, 8.76, 8.85, 8.93, 9.04, 9.05, 8.95, 9.24, 8.82, 8.91, 9.66, 9.66, 9.97, 10.41, 10.89, 10.93, 11.51, 11.15, 11.15, 10.7, 10.28, 9.83, 9.83, 9.39, 9.39, 8.94, 8.9, 9.83, 10.28, 11.62, 11.55, 10.91, 10.04, 10.04, 10.41, 10.41, 12.04, 11.03, 8.3, 7.06, 6.8, 6.0, 3.79, 1.27, 1.08, 2.2, 4.43, 6.28, 9.2, 9.33, 8.06, 6.61, 6.17, 6.17, 6.61, 6.36, 5.51, 7.59, 7.86, 7.86, 8.19, 8.19, 8.19, 8.19, 7.86, 8.15, 7.55, 7.23, 6.95, 8.73, 8.79, 9.05, 9.05, 9.27, 9.43, 9.81, 9.42, 9.32, 8.18, 8.4, 9.04, 5.24, 1.58, -1.32, -1.58, -1.58, -0.89, 0.0, 0.0, 0.0, 0.0, 0.0, 1.33, 2.7, 3.77, 4.17, 5.25, 6.56, 7.36, 7.48, 8.38, 8.42, 8.43, 8.8, 9.24, 9.49, 9.49, 9.68, 9.7, 9.7, 10.14, 9.97, 10.45, 10.89, 10.93, 11.06, 11.05, 10.6, 10.25, 10.28, 9.83, 9.83, 9.39, 9.39, 9.35, 9.83, 10.73, 11.12, 11.4, 9.85, 9.33, 8.8, 8.34, 9.2, 10.27, 10.27, 7.6, 6.52, 6.8, 6.0, 4.11, 2.2, 1.99, 3.22, 4.46, 6.14, 8.38, 8.43, 6.9, 6.0, 6.36, 6.0, 6.0, 6.23, 5.4, 7.59, 7.59, 7.86, 7.86, 8.19, 8.19, 8.19, 7.86, 7.86, 7.55, 6.95, 6.65, 8.38, 8.79, 9.58, 9.05, 9.43, 9.52, 9.0, 9.0, 8.35, 6.95, 6.95, 6.64, 5.21, 1.4, 0.0, 0.0, 0.0, 0.0, 0.0, 0.0, 0.89, 1.75, 1.49, 1.58, 2.57, 4.07, 4.01, 4.06, 4.3, 6.24, 6.04, 7.35, 8.06, 8.43, 8.8, 9.24, 9.49, 9.92, 10.14, 10.14, 10.14, 10.14, 10.6, 10.6, 11.05, 11.05, 11.06, 11.05, 10.6, 10.25, 10.25, 9.83, 9.83, 9.8, 9.79, 9.35, 9.83, 9.83, 10.73, 10.68, 10.08, 8.91, 6.82, 6.45, 6.79, 7.64, 8.15, 7.2, 6.13, 5.06, 5.06, 4.74, 4.29, 4.14, 5.59, 6.14, 6.7, 5.86, 5.93, 5.24, 5.75, 5.37, 5.58, 6.13, 5.75, 4.98, 7.59, 7.59, 7.59, 7.86, 7.86, 7.86, 7.86, 7.86, 7.59, 7.27, 6.95, 6.34, 8.31, 9.05, 10.55, 9.05, 9.81, 9.76, 9.34, 8.9, 9.27, 9.0, 7.68, 5.63, 4.0, 0.0, 0.0, 0.0, 0.0, 0.0, 0.0, 0.89, 2.69, 3.45, 3.27, 2.31, 2.57, 4.2, 2.49, 2.41, 2.42, 3.7, 5.21, 6.32, 6.98, 7.42, 8.3, 8.72, 9.24, 10.41, 10.41, 9.68, 10.14, 10.6, 10.6, 10.6, 11.05, 11.05, 11.06, 11.05, 10.7, 10.25, 10.28, 10.28, 9.8, 10.25, 9.8, 9.83, 9.83, 9.83, 9.83, 9.79, 9.35, 9.64, 8.48, 6.6, 5.84, 5.37, 5.37, 5.69, 5.93, 5.69, 5.69, 5.69, 6.64, 6.7, 7.9, 7.27, 6.01, 4.11, 4.19, 4.19, 4.98, 4.89, 5.24, 5.59, 5.75, 4.98, 7.59, 7.59, 7.59, 7.59, 7.86, 7.86, 7.86, 7.86, 7.59, 7.27, 6.35, 5.72, 7.42, 9.08, 10.41, 9.3, 9.92, 11.04, 10.29, 9.66, 10.04, 10.48, 11.2, 10.55, 8.8, 6.01, 0.0, 0.0, 0.0, 0.0, 0.0, 1.22, 2.49, 3.87, 4.12, 3.27, 1.72, 2.0, 0.0, 0.0, 0.0, 1.84, 4.8, 6.26, 6.71, 7.6, 7.6, 8.45, 8.77, 9.76, 8.9, 9.79, 10.25, 10.7, 10.7, 10.7, 11.14, 11.15, 11.15, 11.14, 10.7, 10.28, 10.28, 9.8, 9.8, 10.25, 10.28, 9.83, 9.83, 9.83, 9.83, 9.83, 9.83, 9.83, 9.39, 7.12, 6.94, 5.95, 5.37, 5.15, 4.87, 5.69, 5.69, 6.01, 7.87, 8.94, 9.6, 7.6, 5.81, 5.81, 5.09, 5.09, 5.51, 5.6, 5.95, 5.24, 4.89, 4.89, 7.59, 7.59, 7.59, 7.59, 7.86, 7.86, 8.19, 7.86, 7.59, 7.59, 6.69, 5.95, 7.19, 6.94, 7.93, 8.37, 9.59, 9.96, 10.01, 9.76, 9.66, 10.94, 11.92, 12.72, 12.09, 11.57, 9.39, 8.0, 8.24, 6.32, 2.82, 1.63, 3.47, 5.21, 4.89, 4.43, 0.0, -2.4, -0.0, -0.0, -0.0, 2.12, 4.56, 5.69, 7.28, 6.6, 8.48, 8.82, 8.44, 8.9, 10.2, 9.39, 10.28, 10.28, 10.73, 10.73, 11.15, 11.15, 11.15, 10.7, 10.73, 10.28, 9.83, 9.39, 9.35, 9.8, 10.25, 9.8, 9.79, 9.8, 10.28, 9.83, 10.73, 10.28, 8.94, 8.94, 8.49, 7.54, 6.57, 5.69, 3.0, 4.19, 4.02, 5.06, 7.2, 9.39, 9.83, 8.94, 6.26, 6.26, 6.21, 6.21, 6.07, 6.16, 5.58, 5.24, 4.74, 4.29, 7.59, 7.59, 7.59, 7.59, 7.59, 8.19, 8.19, 8.19, 8.19, 7.6, 7.32, 7.33, 7.61, 6.96, 7.19, 7.03, 7.74, 8.31, 8.2, 7.19, 6.94, 8.24, 9.76, 10.79, 10.55, 10.91, 9.29, 7.28, 7.47, 8.49, 5.51, -0.0, -0.0, 4.22, 7.2, 7.6, 4.74, -0.0, 1.58, 4.6, 5.53, 5.53, 6.45, 6.55, 7.12, 7.12, 7.63, 8.06, 8.56, 8.99, 9.21, 9.35, 9.83, 9.83, 10.28, 10.25, 10.7, 10.7, 10.6, 10.14, 10.25, 9.35, 9.39, 7.63, 8.17, 8.82, 9.49, 9.97, 9.72, 10.25, 10.28, 10.73, 11.18, 10.73, 9.8, 8.9, 8.49, 8.05, 7.55, 7.2, 2.49, 0.0, 0.0, 0.0, 7.6, 8.49, 9.39, 9.39, 8.38, 7.1, 6.66, 6.66, 6.94, 6.94, 6.16, 5.21, 5.37, 4.47, 7.59, 7.59, 7.59, 7.59, 7.59, 8.19, 8.19, 8.19, 7.9, 8.22, 7.93, 8.24, 9.19, 9.48, 10.54, 8.18, 7.89, 5.06, 5.08, 5.09, 6.43, 5.93, 7.1, 7.13, 7.81, 6.9, 5.94, 4.43, 5.94, 7.15, 6.51, 1.32, -0.0, 2.8, 5.01, 5.95, 6.44, 4.6, 5.53, 7.06, 7.76, 7.81, 7.42, 8.06, 7.63, 6.94, 7.12, 7.12, 7.85, 8.0, 8.49, 8.94, 8.9, 8.77, 9.06, 9.49, 9.75, 9.75, 9.66, 9.24, 8.99, 7.6, 5.95, 5.1, 7.06, 8.05, 8.82, 9.68, 10.24, 10.73, 11.14, 11.05, 11.05, 10.14, 9.7, 9.24, 8.77, 8.29, 8.43, 8.38, 5.06, -1.41, -1.7, 0.0, 0.0, 5.37, 6.64, 9.6, 9.75, 8.24, 6.98, 7.37, 6.94, 7.1, 7.1, 6.64, 6.26, 4.98, 7.59, 7.59, 7.59, 7.59, 7.59, 7.9, 7.9, 7.9, 8.22, 8.22, 8.24, 8.87, 9.5, 10.94, 11.72, 11.5, 9.63, 7.35, 6.79, 7.61, 8.15, 8.4, 7.84, 10.46, 8.17, 6.71, -0.0, -0.8, -0.0, 5.2, 5.58, 4.47, 3.68, 4.43, 5.37, 5.24, 5.77, 6.79, 6.32, 7.81, 8.18, 8.4, 8.17, 8.17, 7.5, 5.6, 6.4, 7.06, 7.45, 7.6, 7.1, 7.37, 7.53, 7.76, 7.82, 8.21, 8.43, 8.43, 7.76, 7.15, 7.6, 3.8, 3.15, 4.2, 5.89, 6.79, 8.48, 9.79, 10.24, 9.92, 9.49, 9.9, 9.08, 8.72, 8.72, 8.58, 8.0, 8.37, 7.53, 7.97, 7.15, 3.79, 0.0, 0.0, 0.0, 1.95, 4.6, 8.22, 9.3, 7.37, 6.0, 6.51, 6.21, 6.71, 7.15, 7.1, 6.64, 5.94, 7.59, 7.27, 7.59, 7.59, 7.3, 7.9, 7.9, 8.22, 8.22, 8.53, 8.85, 9.17, 9.8, 10.99, 12.65, 13.62, 13.74, 13.15, 13.01, 12.71, 13.28, 13.8, 13.86, 13.86, 12.5, 10.6, 5.7, 1.9, -0.0, 0.85, 4.8, 5.59, 5.59, 5.59, 5.95, 5.84, 5.77, 6.45, 7.2, 7.82, 8.17, 8.3, 8.14, 7.42, 6.58, 5.21, 4.74, 5.72, 7.01, 7.15, 5.81, 6.51, 6.28, 6.2, 7.6, 7.6, 7.89, 8.05, 5.53, 1.41, -0.0, 0.89, 2.7, 3.63, 4.5, 6.11, 7.76, 9.34, 9.34, 9.55, 8.42, 7.68, 7.76, 7.41, 7.15, 7.15, 7.28, 7.37, 6.99, 7.21, 6.71, 6.26, 4.43, 0.0, 0.0, 0.0, 2.19, 5.52, 6.32, 6.18, 5.21, 5.09, 5.36, 6.71, 6.64, 7.1, 6.65, 5.94, 7.59, 7.59, 7.28, 7.59, 7.3, 7.9, 7.9, 8.22, 8.22, 8.53, 8.85, 9.46, 10.09, 10.99, 12.45, 13.75, 14.39, 14.72, 14.64, 14.75, 15.01, 15.09, 15.19, 15.2, 14.74, 14.26, 11.57, 6.23, 4.15, 3.6, 4.24, 5.94, 6.64, 6.0, 5.95, 5.84, 6.18, 6.91, 7.2, 8.06, 8.73, 8.29, 8.41, 7.94, 6.0, 5.06, 3.47, 5.72, 6.4, 6.94, 7.01, 7.15, 6.36, 3.97, 3.4, 3.47, 7.2, 7.89, 2.82, -7.15, -1.75, -0.0, 2.7, 2.83, 3.4, 4.58, 6.6, 7.37, 8.94, 7.54, 7.96, 6.48, 5.64, 6.04, 5.36, 5.82, 6.01, 5.69, 5.69, 4.56, 5.95, 7.37, 6.94, 4.43, 0.0, 0.0, 0.0, 1.4, 4.46, 4.87, 5.69, 6.4, 5.36, 6.26, 6.64, 6.64, 6.64, 5.51, 7.59, 7.59, 7.59, 7.3, 7.3, 7.9, 7.9, 8.22, 8.82, 8.53, 9.13, 9.46, 10.06, 10.94, 11.87, 12.93, 14.15, 14.73, 15.21, 15.38, 15.25, 15.46, 15.55, 15.64, 15.2, 15.15, 13.3, 10.14, 7.51, 6.68, 6.26, 5.81, 8.05, 7.06, 7.06, 6.9, 6.98, 7.2, 8.63, 7.85, 8.49, 9.39, 8.49, 7.5, 6.08, 3.91, 2.82, 4.56, 5.72, 6.0, 6.4, 6.4, 4.56, 3.4, 3.2, 5.06, 7.37, 7.55, 6.51, 2.54, -0.0, 1.33, 3.8, 4.14, 4.83, 6.44, 6.44, 7.89, 7.89, 8.49, 7.81, 6.64, 4.4, 3.65, 4.0, 3.8, 3.6, 3.55, 3.0, 3.0, 3.97, 5.58, 6.07, 5.58, 4.22, 0.0, 0.0, 0.0, 1.84, 3.4, 4.6, 6.01, 6.36, 6.71, 7.15, 6.2, 5.4, 5.4, 7.59, 7.59, 7.3, 7.3, 7.3, 7.6, 8.22, 8.22, 8.82, 8.53, 9.13, 9.72, 10.3, 10.88, 11.8, 12.65, 13.09, 13.99, 14.94, 15.21, 15.54, 15.36, 15.54, 15.19, 15.2, 14.7, 14.57, 13.21, 11.12, 9.37, 8.05, 7.15, 6.71, 8.94, 7.94, 6.0, 7.2, 7.42, 8.6, 8.49, 7.6, 7.6, 8.05, 6.9, 5.37, 2.82, 2.99, 4.14, 5.37, 6.08, 6.52, 6.08, 5.37, 5.37, 6.08, 6.64, 8.05, 8.94, 9.76, 7.9, 4.83, 4.96, 5.03, 5.37, 5.72, 6.8, 6.0, 8.3, 8.3, 8.94, 7.12, 6.32, 3.49, 0.89, 0.89, 1.99, 2.95, 3.79, 2.98, 0.0, 0.0, 2.8, 5.06, 6.32, 3.97, 1.32, 0.0, 0.0, 0.95, 2.26, 3.32, 5.37, 7.15, 7.6, 7.15, 6.71, 5.7, 5.7, 7.59, 7.59, 7.3, 7.3, 7.3, 7.6, 8.22, 8.5, 8.82, 8.82, 9.13, 9.72, 10.3, 10.88, 11.72, 11.9, 12.7, 13.48, 14.22, 14.72, 15.11, 15.36, 15.02, 15.19, 14.74, 15.15, 15.54, 15.1, 13.81, 12.07, 10.27, 9.32, 7.97, 10.22, 7.6, 7.42, 7.12, 8.06, 7.5, 7.6, 7.15, 6.61, 6.44, 4.58, 4.14, 4.37, 4.37, 5.31, 6.01, 6.63, 7.28, 6.63, 6.63, 7.44, 7.44, 8.22, 9.29, 9.76, 9.63, 8.15, 7.27, 6.32, 6.9, 6.52, 7.06, 6.02, 7.45, 7.89, 8.49, 8.06, 7.28, 2.12, 0.0, 0.0, 5.6, 4.89, 6.21, 6.57, 5.73, 3.47, 0.0, 1.18, 2.66, 3.68, 3.6, 2.49, 0.0, 0.0, 1.18, 3.32, 0.0, 0.0, 6.01, 8.33, 8.49, 7.15, 6.26, 6.26, 7.59, 7.3, 7.3, 7.3, 7.6, 7.6, 8.22, 8.22, 8.82, 9.08, 9.13, 9.72, 10.06, 10.59, 11.16, 11.62, 12.7, 13.48, 13.53, 13.99, 14.78, 15.25, 14.93, 14.7, 14.75, 15.19, 15.2, 14.75, 13.86, 12.5, 10.67, 9.23, 8.3, 7.4, 7.06, 8.94, 8.05, 8.49, 7.6, 7.15, 7.01, 5.37, 4.56, 4.56, 5.03, 5.59, 5.59, 6.32, 6.98, 8.0, 8.0, 8.0, 7.44, 7.44, 7.44, 8.63, 8.63, 9.04, 8.54, 8.37, 8.0, 7.81, 7.6, 7.63, 7.5, 6.2, 6.26, 8.05, 8.38, 9.03, 7.47, 5.36, 5.03, 6.48, 8.31, 9.67, 10.4, 10.6, 9.49, 7.08, 2.26, 0.0, 0.0, 1.32, 2.54, 3.91, 3.91, 0.89, 1.18, 1.58, 0.0, 0.0, 0.0, 6.64, 8.3, 7.45, 6.26, 6.26, 7.3, 7.3, 7.3, 7.6, 7.6, 7.9, 8.22, 8.22, 8.82, 8.82, 9.42, 10.01, 10.01, 10.59, 10.59, 12.89, 11.62, 11.88, 12.11, 12.78, 14.78, 16.01, 14.48, 14.64, 14.11, 15.46, 10.14, 13.18, 12.74, 8.42, 7.04, 6.55, 5.86, 5.72, 6.3, 6.36, 6.79, 7.26, 9.24, 8.94, 7.42, 7.2, 6.9, 6.9, 6.63, 6.32, 7.81, 7.81, 8.4, 8.4, 8.22, 8.0, 7.44, 7.44, 7.44, 7.81, 8.15, 8.54, 8.37, 8.93, 9.04, 8.6, 8.6, 7.54, 7.15, 6.71, 6.71, 7.55, 8.77, 11.11, 11.55, 11.92, 13.25, 13.83, 14.05, 13.23, 12.27, 11.59, 10.73, 8.45, 0.0, 0.0, 0.0, 0.0, 1.47, 4.0, 5.36, 0.0, 0.0, 1.63, 1.84, 0.0, 0.0, 1.84, 6.32, 7.21, 3.0, 3.0, 7.3, 7.3, 7.6, 7.9, 7.9, 7.9, 8.22, 8.22, 8.82, 8.82, 9.42, 10.01, 10.01, 10.23, 10.8, 11.44, 11.07, 10.04, 11.26, 12.56, 15.24, 14.73, 13.48, 13.87, 13.43, 12.79, 11.62, 7.26, 6.04, 5.36, 5.36, 5.36, 5.36, 4.8, 4.8, 4.9, 5.88, 7.26, 7.87, 8.03, 8.47, 8.21, 7.74, 7.01, 5.89, 8.63, 8.0, 8.4, 8.4, 8.6, 8.6, 8.0, 6.98, 6.32, 6.11, 7.15, 8.37, 7.69, 8.43, 9.63, 9.03, 8.85, 8.49, 8.49, 7.15, 7.15, 7.1, 7.55, 8.9, 10.28, 11.84, 13.49, 16.62, 17.35, 16.36, 15.2, 13.83, 12.74, 9.97, 6.21, 0.0, -0.94, 0.0, 0.0, 1.01, 2.26, 0.0, -6.26, 0.0, 0.0, 5.06, 0.0, -6.32, 0.0, 8.05, -0.0, -0.0, -0.0, 7.3, 7.3, 7.6, 7.9, 7.9, 7.9, 8.22, 8.22, 8.82, 8.82, 9.42, 9.42, 10.01, 10.23, 10.8, 11.62, 11.34, 10.41, 9.86, 12.52, 14.49, 12.03, 10.58, 10.41, 10.96, 11.6, 10.66, 8.79, 7.15, 5.79, 4.8, 4.43, 4.41, 4.47, 4.38, 4.24, 4.6, 5.57, 7.06, 8.03, 8.49, 8.42, 8.3, 7.69, 6.79, 8.6, 8.6, 9.03, 9.03, 8.85, 8.06, 7.28, 5.59, 5.59, 6.64, 6.39, 7.76, 7.68, 9.6, 9.11, 8.94, 8.94, 8.49, 8.49, 7.1, 7.1, 7.1, 7.6, 8.49, 9.39, 10.6, 12.96, 15.71, 16.97, 16.52, 15.27, 12.29, 11.5, 10.85, 9.24, 3.91, -0.89, -0.84, 0.0, 0.0, 0.0, -2.6, -3.79, 0.0, 6.26, -0.0, -2.54, -3.0, -3.0, -3.0, -3.72, -2.6, -2.6, 7.3, 7.3, 7.6, 7.9, 7.9, 8.22, 8.22, 8.5, 8.82, 8.82, 9.08, 9.42, 10.01, 10.23, 10.59, 11.07, 11.07, 11.34, 11.35, 12.82, 13.48, 11.82, 9.42, 9.47, 10.27, 10.71, 11.13, 11.05, 10.71, 9.83, 8.92, 8.03, 7.13, 6.26, 4.92, 4.44, 4.88, 5.33, 5.78, 6.68, 7.15, 7.6, 8.03, 7.51, 6.61, 6.47, 9.29, 9.29, 8.85, 8.41, 8.3, 6.01, 4.6, 5.59, 6.64, 6.64, 6.64, 7.68, 9.2, 8.85, 8.05, 8.01, 7.85, 7.85, 7.42, 6.94, 7.1, 7.1, 7.6, 8.49, 9.29, 11.03, 12.09, 11.62, 8.8, 10.81, 11.8, 11.44, 10.66, 9.86, 9.55, 4.19, -0.95, -1.01, -0.96, -1.19, -1.7, 0.0, 0.0, 7.6, -0.0, -1.49, -1.84, -1.55, -2.4, -3.79, -5.81, -5.81, 7.3, 7.3, 7.6, 7.9, 7.9, 8.22, 8.5, 8.5, 8.82, 8.82, 9.08, 9.42, 9.66, 10.01, 10.59, 11.07, 11.07, 11.62, 12.16, 13.09, 13.71, 13.09, 11.56, 10.34, 10.12, 10.54, 10.6, 10.94, 11.05, 10.71, 10.28, 9.83, 8.94, 8.49, 8.05, 7.13, 6.68, 6.23, 6.23, 6.26, 6.71, 6.71, 7.15, 7.13, 6.23, 6.14, 9.39, 8.94, 8.49, 8.38, 7.15, 4.83, 5.59, 5.59, 5.59, 6.64, 6.32, 7.06, 8.54, 7.63, 7.6, 8.0, 7.63, 7.2, 6.8, 6.7, 6.45, 6.2, 6.71, 7.1, 7.94, 8.85, 6.61, 3.0, 1.7, 4.46, 7.65, 8.91, 9.48, 9.76, 10.01, 10.12, 7.31, 2.73, -1.98, -1.98, 0.0, 0.0, 0.0, -1.98, -7.6, -4.74, -2.99, -2.2, -1.55, -4.47, -5.36, -5.36, 7.6, 7.6, 7.6, 7.6, 7.9, 8.22, 8.5, 8.5, 8.82, 8.82, 9.08, 9.42, 9.66, 10.01, 10.23, 11.07, 11.07, 11.62, 12.16, 12.95, 13.31, 13.74, 13.69, 12.94, 12.04, 11.24, 10.81, 10.34, 10.04, 10.14, 9.77, 9.82, 9.37, 9.39, 8.92, 8.47, 8.03, 7.58, 7.13, 6.68, 6.71, 6.71, 6.71, 6.71, 6.26, 5.81, 8.94, 8.94, 8.49, 8.06, 6.98, 6.32, 6.32, 6.01, 6.32, 6.32, 6.18, 6.45, 7.44, 8.0, 6.65, 6.71, 6.94, 6.21, 5.58, 5.26, 5.26, 6.0, 5.6, 6.51, 7.6, 9.97, 6.17, 4.92, 0.0, 0.0, 1.95, 6.44, 5.98, 7.59, 9.2, 9.75, 9.28, 8.01, 5.26, 0.0, -2.6, 0.0, 0.0, -2.12, -5.36, -4.82, -4.65, -3.47, -2.8, -5.81, -3.79, -3.79, 7.6, 7.6, 7.6, 7.6, 7.9, 7.9, 8.22, 8.5, 8.5, 8.82, 9.08, 9.42, 9.66, 9.66, 10.23, 10.87, 11.07, 11.62, 11.62, 12.42, 12.79, 13.53, 13.74, 13.51, 13.26, 12.51, 12.18, 11.28, 10.5, 10.14, 9.77, 9.77, 9.37, 9.37, 8.92, 8.92, 8.47, 8.47, 8.03, 7.58, 7.58, 7.15, 6.71, 6.71, 6.71, 6.68, 7.06, 7.58, 8.03, 7.87, 7.21, 8.22, 7.28, 7.28, 6.01, 6.32, 7.15, 6.32, 6.9, 6.9, 8.06, 6.94, 6.71, 6.17, 4.92, 3.49, 3.0, 4.58, 6.21, 7.55, 9.06, 10.45, 11.55, 10.28, 8.94, 5.2, 0.0, 2.12, 4.71, 4.6, 6.95, 8.99, 9.49, 8.91, 8.94, 6.26, 4.4, -0.0, -5.36, -3.79, -6.07, -5.81, -6.14, -6.36, -5.2, -5.36, -7.15, -7.15, 7.6, 7.6, 7.6, 7.6, 7.9, 7.9, 7.9, 8.5, 8.5, 8.82, 9.08, 9.08, 9.66, 9.66, 10.23, 10.87, 11.07, 11.07, 11.88, 12.03, 12.67, 12.79, 13.02, 13.32, 13.09, 13.26, 12.94, 12.61, 11.71, 10.94, 10.58, 10.14, 9.77, 9.77, 9.32, 9.37, 8.92, 8.47, 8.47, 8.03, 8.03, 7.58, 7.58, 7.15, 6.71, 6.68, 7.07, 8.03, 8.49, 8.49, 8.03, 7.13, 8.38, 7.89, 7.67, 7.67, 7.28, 7.2, 6.08, 6.9, 8.06, 8.6, 7.42, 6.64, 4.11, 1.84, 3.27, 4.95, 7.1, 8.0, 8.56, 10.6, 10.89, 11.51, 12.03, 11.95, 4.96, 1.52, 4.22, 6.01, 7.51, 9.64, 9.83, 8.43, 7.89, 7.53, 5.84, 3.91, -0.0, -4.4, -4.46, -6.26, -5.81, -5.81, -5.81, -7.15, -8.05, -8.05, 7.6, 7.6, 7.6, 7.6, 7.9, 7.9, 7.9, 8.22, 8.5, 8.82, 9.08, 9.08, 9.42, 9.66, 10.3, 10.51, 11.07, 11.07, 11.5, 11.88, 12.28, 12.28, 12.62, 12.83, 12.83, 13.02, 12.78, 12.51, 12.04, 11.71, 11.4, 11.28, 10.94, 10.94, 10.6, 10.14, 10.13, 9.68, 9.32, 8.87, 8.42, 8.42, 8.03, 7.58, 7.58, 7.58, 7.58, 8.03, 8.03, 8.47, 8.05, 7.15, 6.26, 5.33, 7.31, 7.4, 8.3, 7.2, 5.93, 5.95, 8.06, 8.29, 9.29, 6.16, 4.14, 2.54, 4.5, 6.8, 7.55, 8.05, 8.77, 9.66, 10.43, 10.68, 10.41, 10.21, 5.52, 0.0, 1.98, 5.06, 7.6, -1.63, -0.0, 2.99, 4.74, 5.49, 6.18, 6.18, 4.6, 0.0, -2.84, -3.93, -5.4, -5.2, -5.64, -8.49, -8.05, -8.05, 7.6, 7.6, 7.6, 7.6, 7.9, 7.9, 7.9, 8.22, 8.22, 8.5, 9.08, 9.08, 9.42, 9.66, 9.94, 10.51, 10.51, 11.07, 11.34, 11.5, 12.14, 12.28, 12.11, 12.11, 12.33, 12.53, 12.53, 11.87, 11.87, 11.56, 11.56, 11.28, 11.24, 10.81, 10.94, 10.5, 10.47, 10.01, 9.68, 9.23, 8.79, 8.86, 8.47, 8.47, 8.47, 8.42, 8.77, 8.42, 8.42, 8.42, 7.97, 7.06, 6.23, 4.92, 4.47, 7.06, 7.89, 7.2, 4.75, 6.32, 7.37, 8.45, 8.49, 6.21, 4.5, 4.88, 6.11, 7.12, 8.0, 8.49, 9.35, 9.97, 10.68, 10.85, 10.0, 7.81, 2.58, -0.89, 0.0, 0.0, -4.4, -3.09, -1.61, -0.0, 2.99, 3.91, 5.21, 6.57, 6.45, 4.92, -2.48, -4.11, -4.65, -4.6, -7.2, -7.81, -3.8, -3.8, 7.6, 7.6, 7.6, 7.6, 7.9, 7.9, 7.9, 7.9, 8.22, 8.5, 8.82, 9.08, 9.08, 9.66, 9.94, 10.51, 10.51, 10.7, 11.34, 11.5, 11.75, 11.75, 11.99, 12.11, 11.92, 11.82, 11.62, 11.62, 11.39, 11.56, 11.13, 11.08, 11.08, 10.81, 10.81, 10.81, 10.34, 10.04, 10.01, 9.57, 9.11, 8.79, 8.33, 9.7, 9.35, 7.6, 8.42, 8.48, 8.0, 8.21, 7.69, 6.94, 5.99, 4.8, 3.98, 4.02, 6.94, 6.8, 5.93, 6.32, 7.31, 8.05, 7.42, 5.69, 4.96, 6.32, 6.79, 7.53, 7.6, 8.45, 9.24, 10.45, 11.18, 11.37, 10.96, 10.56, 4.8, -2.8, -2.6, -2.23, -4.47, -2.53, -2.23, -1.0, 1.08, 3.79, 4.98, 6.02, 6.45, 4.4, 4.92, -4.11, -4.74, -5.06, -5.1, -5.21, -2.69, -2.69, 7.6, 7.6, 7.6, 7.6, 7.6, 7.9, 7.9, 7.9, 7.9, 8.22, 8.5, 9.08, 9.08, 9.71, 9.94, 9.94, 10.51, 10.51, 10.96, 10.96, 11.75, 11.75, 11.22, 11.6, 11.41, 11.41, 11.62, 11.12, 10.91, 11.08, 11.08, 11.08, 11.08, 10.66, 10.66, 10.77, 10.34, 10.34, 9.91, 9.57, 9.57, 9.11, 8.64, 8.17, 7.51, 9.83, 9.8, 5.4, 4.29, 4.37, 4.37, 4.65, 5.08, 4.6, 4.43, 4.47, 4.47, 4.41, 6.64, 6.4, 6.88, 7.55, 6.8, 5.1, 6.01, 6.11, 6.55, 7.6, 7.15, 8.06, 8.8, 9.9, 11.11, 12.04, 12.63, 13.97, 12.79, 7.67, 0.0, -5.6, -4.02, -2.15, -2.79, -1.61, -0.0, 2.48, 4.6, 6.02, 6.55, 6.36, 4.34, 0.0, -3.0, -4.83, -5.1, -4.0, -2.54, -2.54, 7.6, 7.6, 7.6, 7.6, 7.6, 7.6, 7.9, 7.9, 7.9, 8.22, 8.5, 8.5, 9.08, 9.37, 9.94, 9.94, 10.15, 10.51, 10.79, 10.96, 10.96, 11.22, 10.83, 11.08, 11.08, 10.91, 10.91, 10.71, 10.91, 10.91, 10.91, 10.91, 11.08, 10.66, 10.6, 10.6, 10.18, 10.34, 9.91, 9.86, 9.43, 9.39, 8.96, 8.17, 7.69, 9.97, 10.14, 5.33, 3.07, 3.58, 4.09, 5.09, 5.72, 5.09, 4.89, 4.92, 4.92, 4.47, 4.47, 6.26, 6.64, 7.37, 7.2, 7.2, 7.76, 7.63, 6.7, 7.45, 7.6, 8.38, 7.58, 8.21, 9.24, 12.2, 14.18, 13.56, 13.7, 12.24, 10.28, 6.71, -3.48, -3.39, -2.15, -1.9, -1.24, 0.71, 2.23, 6.17, 6.21, 7.56, 6.21, 4.24, 0.0, -4.22, -4.56, -3.2, -1.63, -1.63, 7.3, 7.3, 7.6, 7.6, 7.6, 7.6, 7.6, 7.9, 7.9, 7.9, 8.22, 8.5, 8.5, 9.37, 9.37, 9.94, 9.94, 10.15, 10.41, 10.41, 10.41, 10.83, 10.83, 10.68, 10.68, 10.91, 10.4, 10.21, 12.04, 10.42, 10.71, 10.71, 10.91, 10.66, 10.6, 10.6, 10.18, 10.18, 9.91, 9.86, 9.86, 9.39, 8.96, 8.48, 8.3, 9.21, 9.57, 8.94, 7.6, 7.15, 7.56, 7.48, 7.13, 7.15, 7.15, 5.81, 5.81, 5.36, 4.87, 4.44, 6.71, 7.81, 7.76, 7.47, 8.14, 8.33, 7.6, 8.05, 8.05, 8.49, 7.15, 7.6, 9.39, 11.11, 14.42, 13.89, 12.99, 12.52, 10.68, 10.68, 4.84, -2.0, -3.6, -1.7, -1.26, -0.0, 1.58, 3.07, 6.26, 7.15, 7.15, 4.92, 4.11, -3.4, -3.6, -3.2, -1.73, -1.73, 7.3, 7.3, 7.3, 7.3, 7.3, 7.3, 7.3, 7.6, 7.9, 7.9, 7.9, 8.5, 8.78, 8.78, 9.37, 9.37, 9.59, 9.59, 9.86, 10.41, 10.41, 10.68, 10.3, 10.55, 10.55, 10.4, 10.0, 10.11, 10.21, 12.45, 9.51, 9.42, 9.92, 9.92, 10.0, 10.18, 10.18, 10.18, 9.7, 9.86, 9.86, 9.43, 9.39, 8.96, 8.72, 9.21, 9.86, 10.14, 10.27, 9.83, 9.39, 8.94, 8.94, 8.49, 7.6, 6.71, 6.71, 6.26, 5.77, 5.32, 5.36, 7.81, 8.48, 7.12, 7.85, 8.0, 7.6, 7.55, 8.49, 8.94, 8.45, 8.33, 9.35, 11.18, 14.64, 15.78, 10.25, 9.66, 9.75, 8.8, 8.06, 2.4, 4.92, -4.47, -2.24, 1.79, 1.34, 2.24, 6.2, 7.1, 6.65, 4.47, 5.36, 6.71, 0.0, -4.71, -2.4, -2.4, 6.98, 6.98, 7.3, 7.3, 7.3, 7.3, 7.3, 7.3, 7.9, 8.19, 8.19, 8.19, 8.78, 8.78, 9.02, 9.37, 9.02, 9.86, 9.86, 9.86, 10.3, 10.3, 10.3, 10.55, 10.16, 10.4, 10.0, 9.88, 10.4, 10.71, 10.0, 9.21, 9.13, 9.13, 9.42, 9.7, 10.12, 10.12, 10.12, 10.12, 9.7, 9.43, 9.39, 9.39, 9.39, 9.39, 9.43, 10.01, 10.14, 10.22, 10.22, 9.82, 9.37, 8.94, 8.05, 7.15, 6.71, 6.71, 6.26, 5.78, 8.05, 7.94, 7.47, 7.63, 6.94, 7.55, 7.6, 7.15, 8.05, 8.49, 8.0, 9.74, 9.76, 11.15, 15.09, 16.51, 13.86, 10.73, 9.83, 9.83, 9.68, 8.91, 7.15, 0.0, -3.79, -2.68, 2.24, 2.6, 6.02, 6.51, 6.2, 4.92, 4.92, 5.81, 6.26, -3.4, -3.4, -3.4, 6.98, 6.98, 6.98, 7.3, 7.3, 7.3, 7.59, 7.59, 7.59, 8.19, 8.19, 8.19, 8.45, 8.78, 8.45, 9.02, 9.3, 9.3, 9.5, 9.5, 10.13, 9.76, 10.16, 10.16, 10.16, 10.4, 10.0, 10.0, 10.4, 10.62, 10.42, 9.7, 9.39, 8.96, 8.79, 9.21, 9.63, 10.12, 10.12, 10.12, 10.12, 9.7, 9.21, 9.39, 9.39, 9.43, 9.86, 9.86, 10.01, 10.01, 10.14, 9.68, 9.32, 8.87, 8.03, 7.58, 6.68, 6.68, 6.71, 6.71, 5.81, 8.38, 7.47, 7.63, 7.63, 7.94, 7.37, 7.55, 7.55, 8.05, 7.56, 8.94, 10.28, 11.62, 14.28, 15.65, 15.62, 15.97, 15.17, 14.3, 12.52, 11.18, 8.77, 3.8, 0.0, 0.0, 2.53, 5.36, 6.4, 6.0, 6.23, 6.07, 5.2, 5.36, 5.81, 0.0, -3.4, -3.4, 6.69, 6.69, 6.69, 6.69, 7.59, 7.59, 7.59, 7.59, 7.59, 7.59, 8.19, 8.19, 8.19, 8.19, 8.45, 8.73, 8.94, 9.3, 9.3, 9.76, 9.76, 9.76, 10.02, 10.02, 10.16, 10.4, 10.0, 10.0, 10.21, 10.21, 10.42, 10.0, 10.18, 9.86, 9.39, 9.39, 9.55, 9.63, 10.05, 10.12, 10.12, 9.63, 9.21, 9.39, 9.43, 9.86, 9.7, 9.86, 9.86, 9.86, 10.01, 9.57, 9.68, 8.79, 8.42, 7.52, 7.13, 7.13, 6.68, 6.71, 6.26, 5.78, 8.38, 7.37, 7.85, 8.85, 7.85, 8.33, 8.01, 7.6, 8.49, 7.6, 10.28, 11.59, 13.86, 13.86, 13.86, 15.2, 16.54, 16.51, 14.64, 11.49, 8.0, 3.8, 2.83, 2.83, 6.01, 6.44, 6.52, 7.47, 7.89, 5.69, 3.2, 0.0, 4.11, 4.43, 0.0, 0.0, 6.97, 6.97, 6.97, 6.97, 6.97, 7.27, 7.27, 7.59, 7.59, 7.59, 7.86, 7.86, 7.86, 8.15, 8.38, 8.73, 8.73, 8.94, 9.21, 9.21, 9.21, 9.63, 9.63, 9.63, 9.63, 9.88, 9.88, 10.0, 10.0, 10.21, 10.21, 10.42, 10.42, 10.18, 10.18, 9.86, 9.81, 9.81, 9.63, 10.05, 9.63, 9.63, 9.21, 10.68, 8.96, 9.21, 9.51, 9.51, 9.7, 9.7, 9.86, 9.43, 9.54, 9.11, 8.77, 7.87, 7.51, 7.06, 6.68, 6.71, 6.71, 6.26, 8.49, 7.54, 8.0, 8.85, 8.0, 8.05, 8.05, 7.6, 7.15, 7.15, 9.39, 11.62, 13.86, 13.38, 12.39, 13.29, 15.34, 16.05, 14.25, 10.6, 6.87, 1.67, 1.67, 4.2, 5.63, 7.6, 8.0, 8.72, 8.05, 6.32, 1.95, 0.0, 0.0, 2.12, 2.26, 3.0, 6.97, 6.97, 6.97, 6.97, 6.97, 6.97, 7.27, 7.27, 7.27, 7.59, 7.59, 8.15, 8.15, 8.15, 8.15, 8.38, 8.38, 9.01, 9.21, 9.21, 9.21, 9.48, 9.63, 9.63, 9.88, 9.88, 9.88, 9.88, 9.88, 10.11, 10.11, 10.21, 10.21, 10.42, 10.6, 10.18, 9.7, 9.7, 9.63, 9.63, 9.63, 9.13, 8.72, 10.18, 8.96, 9.7, 9.71, 9.71, 9.3, 9.51, 9.7, 9.27, 9.39, 9.11, 8.64, 7.87, 7.4, 7.06, 6.68, 6.71, 6.26, 5.81, 8.49, 7.1, 7.55, 8.94, 8.49, 7.6, 7.6, 7.6, 6.71, 7.6, 8.94, 10.28, 14.3, 14.3, 12.39, 12.89, 14.42, 14.84, 13.05, 11.14, 6.3, 0.0, 0.0, 1.67, 4.0, 6.32, 8.05, 8.43, 7.81, 6.32, 1.75, 0.0, 0.0, 0.0, 1.73, 2.26, 6.67, 6.67, 6.97, 6.97, 6.97, 6.97, 6.97, 7.27, 7.27, 7.27, 7.55, 7.55, 7.81, 7.81, 8.15, 8.15, 8.65, 8.65, 8.65, 8.84, 9.21, 9.48, 9.48, 9.48, 9.88, 9.88, 9.88, 9.88, 9.88, 10.11, 9.71, 10.11, 10.11, 10.21, 10.42, 10.0, 10.18, 10.18, 9.7, 9.7, 9.63, 9.13, 8.51, 8.22, 10.85, 9.7, 9.71, 8.82, 8.43, 8.68, 9.01, 9.21, 8.79, 8.91, 8.64, 8.17, 7.4, 6.61, 6.68, 6.71, 6.26, 6.26, 5.81, 8.49, 8.05, 8.49, 7.6, 8.05, 7.6, 7.6, 7.15, 7.15, 8.82, 9.76, 12.52, 14.3, 13.82, 11.87, 10.55, 10.27, 10.27, 9.6, 6.95, 0.0, 0.0, 0.0, 1.67, 5.36, 6.64, 7.21, 7.21, 6.32, 1.84, -1.75, -1.67, 0.0, 1.73, 1.73, 6.35, 6.35, 6.67, 6.67, 6.67, 6.67, 6.97, 6.97, 7.55, 7.23, 7.55, 7.55, 7.55, 7.81, 8.08, 8.08, 8.08, 8.65, 8.65, 8.65, 8.84, 9.1, 9.1, 9.1, 9.48, 9.88, 9.88, 9.88, 9.88, 9.48, 9.71, 9.71, 9.71, 9.71, 9.71, 9.92, 10.0, 10.0, 10.18, 9.7, 9.7, 9.21, 8.51, 8.28, 9.2, 12.04, 9.01, 7.23, 7.07, 7.61, 7.76, 8.51, 8.72, 8.48, 8.06, 8.17, 7.84, 6.61, 6.68, 6.68, 6.71, 5.81, 8.49, 8.05, 8.05, 8.49, 8.05, 8.94, 7.6, 7.6, 7.6, 7.55, 8.82, 9.03, 9.74, 12.07, 14.25, 13.28, 8.12, 7.35, 8.32, 8.32, 5.82, 0.0, -1.25, 0.0, 0.0, 2.83, 4.96, 5.72, 6.32, 5.72, 1.75, -1.67, -1.58, 0.0, 0.0, 0.0, 6.35, 6.35, 6.35, 6.67, 6.67, 6.67, 6.95, 6.95, 6.95, 6.95, 7.23, 7.23, 7.55, 8.08, 8.08, 8.08, 8.08, 8.08, 8.65, 8.65, 8.65, 9.1, 9.1, 9.1, 9.1, 9.63, 9.88, 9.88, 9.48, 9.48, 9.48, 9.71, 9.71, 9.71, 9.71, 9.71, 9.71, 9.92, 10.0, 9.92, 9.51, 9.51, 9.01, 8.8, 9.88, 10.71, 9.7, 8.0, 7.09, 6.8, 6.95, 7.08, 7.71, 7.81, 7.58, 7.69, 6.97, 7.06, 7.06, 6.68, 6.68, 6.23, 6.26, 8.94, 8.49, 8.41, 8.41, 8.05, 7.55, 8.0, 8.05, 8.0, 9.03, 7.76, 9.45, 9.54, 11.84, 13.99, 11.33, 7.28, 6.15, 6.98, 5.2, 0.0, -1.45, 0.0, 0.0, 2.82, 4.23, 6.24, 5.98, 5.46, 1.54, -1.75, 0.0, 0.0, 0.0, 0.0, 6.06, 6.06, 6.06, 6.65, 6.95, 6.95, 6.95, 6.95, 6.95, 6.95, 7.23, 7.23, 7.51, 7.85, 8.08, 8.08, 8.08, 8.08, 8.29, 8.65, 8.65, 8.93, 9.1, 9.1, 9.1, 9.1, 9.63, 9.48, 9.48, 9.48, 9.48, 9.48, 9.48, 9.71, 9.71, 9.71, 9.71, 9.71, 9.71, 9.92, 9.92, 9.51, 9.51, 9.51, 9.71, 10.42, 10.6, 10.04, 9.11, 8.64, 8.0, 7.51, 7.09, 7.09, 7.09, 7.26, 6.94, 6.94, 7.06, 7.04, 7.12, 6.68, 6.23, 8.94, 8.49, 8.38, 8.17, 8.17, 7.21, 7.85, 8.05, 8.33, 8.56, 8.95, 9.36, 9.75, 10.58, 13.86, 15.99, 16.33, 12.33, 9.24, 4.12, 0.0, 0.0, 0.0, 1.39, 2.6, 3.77, 5.0, 5.77, 4.58, 1.84, 0.0, 0.0, 1.4, 1.4, 1.4, 6.06, 6.06, 6.34, 6.34, 6.34, 6.64, 6.64, 6.64, 6.64, 6.95, 6.95, 7.51, 7.51, 7.51, 8.08, 8.08, 8.08, 8.08, 8.08, 8.65, 8.65, 8.65, 8.65, 9.1, 9.1, 9.1, 9.1, 9.1, 9.35, 9.35, 9.35, 9.48, 9.48, 9.48, 9.71, 9.71, 9.71, 9.71, 9.71, 9.71, 9.92, 9.92, 9.92, 9.92, 9.92, 9.92, 10.18, 10.6, 10.34, 10.04, 9.57, 8.67, 8.21, 7.74, 7.69, 7.26, 7.4, 6.94, 7.06, 7.06, 7.12, 7.12, 6.68, 6.68, 8.94, 8.41, 8.6, 7.63, 8.06, 7.85, 8.94, 7.85, 8.3, 9.24, 9.36, 9.75, 10.6, 11.62, 14.3, 16.05, 18.33, 19.67, 18.91, 10.46, 0.0, 0.0, 2.71, 3.92, 3.92, 3.92, 4.32, 3.19, 0.0, 0.0, 0.0, 1.33, 1.33, 1.33, 6.34, 6.34, 6.34, 6.34, 6.34, 6.34, 6.34, 6.64, 6.64, 6.64, 6.95, 7.51, 7.51, 7.51, 7.85, 8.08, 8.08, 8.08, 8.08, 8.65, 8.65, 8.65, 8.65, 8.65, 9.1, 9.1, 9.1, 9.1, 9.35, 9.35, 9.35, 9.35, 9.48, 9.48, 9.71, 9.6, 9.2, 9.2, 9.2, 9.3, 9.71, 9.92, 9.92, 9.92, 9.51, 9.51, 9.92, 10.0, 10.6, 10.34, 10.34, 10.01, 9.57, 9.11, 8.77, 7.87, 7.87, 7.4, 7.07, 7.06, 7.06, 7.13, 7.13, 6.68, 6.71, 8.94, 8.85, 8.0, 8.05, 8.05, 8.45, 8.29, 8.56, 8.99, 9.49, 9.97, 10.7, 11.62, 12.52, 12.94, 15.95, 19.07, 19.63, 18.33, 16.22, 10.99, 4.93, 5.99, 5.77, 5.75, 2.19, 3.07, 1.58, 1.33, 1.28, 2.39, 2.39, 2.39, 6.34, 6.34, 6.34, 6.34, 6.34, 6.34, 6.34, 6.64, 6.64, 6.64, 6.95, 6.95, 7.51, 7.51, 7.85, 8.08, 8.08, 8.08, 8.08, 8.44, 8.65, 8.65, 8.65, 8.65, 8.65, 9.1, 9.1, 9.1, 9.1, 9.35, 9.35, 9.35, 9.35, 9.35, 9.6, 9.2, 9.2, 9.2, 9.2, 9.2, 9.3, 9.71, 9.92, 9.92, 9.51, 9.51, 9.92, 9.92, 10.0, 10.18, 10.18, 9.91, 9.86, 9.57, 9.11, 8.79, 8.33, 8.3, 7.87, 7.51, 7.07, 7.06, 6.68, 6.68, 6.26, 8.94, 8.94, 8.94, 8.94, 8.0, 8.45, 8.29, 8.77, 9.21, 9.68, 10.12, 10.6, 11.59, 11.62, 11.59, 12.85, 16.87, 19.53, 18.75, 17.43, 14.6, 10.79, 7.27, 6.58, 6.95, 5.46, 4.05, 2.95, 2.6, 2.6, 2.23, 2.23, 2.23, 6.34, 6.34, 6.34, 6.34, 6.34, 6.34, 6.34, 6.34, 6.64, 6.64, 6.95, 6.95, 7.23, 7.23, 7.55, 7.81, 7.81, 7.81, 8.08, 8.08, 8.44, 8.65, 8.65, 8.65, 8.65, 8.65, 8.93, 9.1, 9.1, 9.35, 9.35, 9.35, 9.35, 9.35, 9.2, 9.2, 9.2, 9.2, 9.2, 9.2, 9.2, 9.71, 9.71, 9.92, 9.51, 9.51, 9.92, 9.92, 9.92, 9.92, 10.12, 9.7, 9.7, 9.86, 9.57, 9.11, 9.11, 8.77, 8.3, 7.87, 7.4, 7.07, 7.06, 6.68, 5.79, 8.49, 8.49, 8.94, 8.94, 8.49, 8.94, 8.9, 9.34, 9.68, 9.68, 10.12, 10.14, 10.7, 11.18, 11.18, 11.59, 14.28, 17.3, 18.3, 17.4, 11.08, 10.02, 9.13, 7.47, 8.34, 8.0, 6.64, 6.64, 5.86, 5.46, 4.88, 4.88, 4.88, 6.34, 6.34, 6.34, 6.34, 6.34, 6.34, 6.34, 6.34, 6.64, 6.64, 6.95, 6.95, 7.23, 7.23, 7.55, 7.55, 7.81, 7.81, 7.81, 7.81, 8.44, 8.65, 8.65, 8.65, 8.65, 8.65, 8.93, 8.55, 8.55, 8.82, 8.96, 8.96, 8.96, 8.96, 9.2, 9.2, 9.2, 9.2, 9.2, 9.2, 9.2, 9.3, 9.71, 9.71, 9.3, 9.3, 9.92, 9.92, 9.92, 9.92, 9.92, 9.7, 9.7, 9.7, 9.39, 9.39, 9.11, 8.67, 8.64, 8.17, 7.69, 7.4, 6.94, 6.61, 6.16, 7.55, 8.05, 8.49, 8.49, 8.94, 9.35, 9.79, 9.79, 10.24, 10.12, 10.12, 10.14, 9.8, 10.28, 10.73, 11.18, 11.62, 13.41, 16.09, 15.97, 10.32, 9.33, 8.8, 8.18, 7.87, 7.96, 8.8, 8.63, 8.22, 8.22, 7.76, 7.76, 7.76, 6.34, 6.06, 6.34, 6.34, 6.34, 6.34, 6.34, 6.34, 6.34, 6.64, 6.95, 6.95, 6.95, 7.23, 7.55, 7.55, 7.55, 7.81, 7.81, 7.81, 8.08, 8.08, 8.08, 8.29, 8.29, 8.29, 8.55, 8.55, 8.55, 8.82, 8.82, 8.96, 8.96, 9.2, 9.2, 9.2, 9.2, 9.2, 9.2, 9.2, 9.2, 9.2, 9.3, 9.2, 9.2, 9.2, 9.71, 9.71, 9.92, 9.92, 9.92, 9.92, 9.51, 9.21, 9.21, 9.39, 8.96, 8.96, 8.64, 8.17, 7.74, 7.26, 7.26, 6.94, 6.3, 7.85, 7.55, 8.05, 8.49, 8.49, 9.34, 9.64, 9.85, 10.12, 10.12, 9.68, 9.79, 9.79, 9.8, 10.28, 10.73, 11.18, 11.62, 12.49, 15.05, 8.24, 8.24, 8.24, 8.43, 8.18, 7.51, 7.96, 8.0, 8.67, 8.67, 8.67, 8.67, 8.67, 6.06, 6.06, 6.06, 6.34, 6.34, 6.34, 6.34, 6.34, 6.34, 6.95, 6.95, 6.95, 6.95, 7.23, 7.55, 7.55, 7.55, 7.55, 7.81, 7.81, 8.08, 8.08, 8.08, 8.08, 8.08, 8.08, 8.55, 8.55, 8.55, 8.82, 8.82, 8.82, 8.96, 9.2, 9.2, 9.2, 9.2, 9.2, 9.2, 9.2, 9.2, 9.2, 9.2, 9.2, 9.2, 9.2, 9.2, 9.71, 9.71, 9.71, 9.92, 9.92, 9.51, 9.01, 9.21, 9.21, 8.79, 8.91, 8.48, 8.42, 8.0, 7.51, 7.09, 7.21, 6.3, 5.57, 7.85, 7.55, 8.0, 8.0, 8.44, 9.16, 8.99, 9.2, 9.92, 9.68, 9.24, 9.35, 9.79, 10.25, 10.7, 10.7, 11.59, 12.41, 11.54, 7.67, 7.32, 7.69, 7.69, 8.05, 7.06, 7.15, 7.64, 8.0, 8.37, 8.37, 8.37, 8.37, 5.72, 5.72, 6.06, 6.06, 6.34, 6.34, 6.34, 6.34, 6.34, 6.95, 6.95, 6.95, 6.95, 7.23, 7.23, 7.55, 7.55, 7.55, 7.55, 7.81, 8.08, 8.08, 8.08, 8.08, 8.08, 8.08, 8.37, 8.37, 8.55, 8.82, 8.82, 8.82, 8.82, 8.82, 9.2, 9.2, 9.2, 9.2, 9.2, 9.2, 9.2, 9.2, 9.2, 9.2, 9.2, 9.2, 9.2, 9.2, 9.71, 9.71, 9.71, 9.92, 9.51, 9.42, 9.01, 9.21, 8.72, 8.72, 8.72, 8.22, 8.0, 7.51, 7.51, 7.09, 6.51, 5.4, 8.06, 7.63, 7.85, 8.05, 8.44, 8.73, 8.91, 8.17, 9.2, 9.13, 8.99, 9.06, 9.49, 9.7, 10.14, 10.6, 11.06, 15.78, 12.89, 8.67, 7.32, 6.68, 6.68, 7.32, 7.44, 7.15, 7.64, 7.64, 8.4, 8.4, 8.4, 8.4, 5.72, 5.72, 5.72, 6.06, 6.06, 6.34, 6.34, 6.34, 6.34, 6.65, 6.95, 6.95, 6.95, 6.95, 7.23, 7.23, 7.55, 7.55, 7.55, 7.55, 7.85, 8.08, 8.08, 8.08, 8.08, 8.08, 8.37, 8.0, 8.0, 8.18, 8.43, 8.82, 8.82, 8.82, 8.82, 8.82, 9.07, 9.2, 9.2, 9.2, 9.2, 9.2, 9.2, 9.2, 9.2, 9.2, 9.2, 9.2, 9.2, 9.2, 9.71, 9.71, 9.42, 9.42, 9.01, 9.01, 8.51, 8.72, 8.72, 8.22, 7.81, 7.71, 7.31, 7.31, 6.6, 5.6, 5.4, 5.57, 8.45, 8.49, 8.9, 9.34, 9.34, 8.89, 8.44, 7.82, 8.72, 9.24, 9.24, 9.66, 9.97, 10.41, 14.42, 15.34, 11.66, 10.15, 8.3, 6.68, 6.01, 6.32, 6.7, 6.79, 7.28, 7.64, 7.64, 7.58, 7.58, 7.58, 5.72, 5.72, 5.72, 6.06, 6.06, 6.06, 6.34, 6.34, 6.34, 6.65, 6.95, 6.95, 6.95, 6.95, 6.95, 7.23, 7.23, 7.23, 7.23, 7.55, 7.85, 7.85, 8.08, 8.08, 8.08, 7.73, 7.73, 8.0, 8.0, 8.0, 8.18, 8.43, 8.43, 8.82, 8.82, 8.82, 8.82, 8.82, 8.96, 8.96, 8.96, 8.96, 8.96, 8.96, 8.96, 8.96, 8.96, 9.2, 9.2, 9.2, 9.2, 9.2, 9.2, 9.2, 9.01, 9.01, 8.91, 8.51, 8.51, 8.0, 8.0, 7.81, 7.71, 7.31, 6.8, 6.28, 5.6, 5.4, 8.33, 8.77, 9.34, 9.39, 9.83, 9.83, 9.83, 9.39, 8.77, 9.06, 9.66, 9.66, 9.66, 10.18, 13.99, 17.05, 11.54, 9.03, 7.76, 6.32, 5.3, 5.21, 5.59, 6.06, 6.45, 6.79, 6.79, 6.79, 6.79, 6.79, 5.72, 5.72, 5.72, 5.72, 6.06, 6.06, 6.34, 6.34, 6.34, 6.34, 6.65, 6.95, 6.95, 6.95, 6.95, 6.95, 7.23, 7.23, 7.23, 7.23, 7.51, 7.51, 7.85, 7.85, 7.73, 7.73, 7.73, 7.73, 8.0, 8.0, 8.0, 8.18, 8.43, 8.82, 8.82, 8.82, 8.82, 8.82, 8.82, 8.96, 8.96, 8.96, 8.96, 8.96, 8.96, 8.96, 8.96, 8.96, 8.96, 9.2, 9.2, 9.2, 9.2, 9.2, 8.8, 8.68, 8.91, 8.91, 8.51, 8.51, 8.0, 8.0, 7.48, 7.48, 7.08, 6.8, 5.75, 5.08, 5.81, 8.56, 9.21, 9.34, 9.79, 9.83, 9.83, 9.83, 9.83, 9.35, 9.7, 9.97, 9.75, 10.18, 11.76, 17.05, 12.82, 8.43, 6.32, 5.59, 4.46, 3.91, 4.46, 5.3, 5.3, 6.79, 6.79, 7.13, 7.13, 7.13, 5.72, 5.72, 5.72, 5.72, 6.06, 6.06, 6.34, 6.34, 6.34, 6.34, 6.65, 6.95, 6.95, 6.95, 6.95, 6.95, 6.95, 7.23, 7.23, 7.23, 7.23, 7.51, 7.51, 7.51, 7.51, 7.51, 7.51, 7.73, 7.73, 8.0, 8.0, 8.0, 8.0, 8.55, 8.82, 8.82, 8.82, 8.82, 8.82, 8.96, 8.96, 8.96, 8.96, 8.96, 8.96, 8.96, 8.96, 8.96, 8.96, 8.96, 8.96, 9.2, 9.2, 9.2, 8.68, 8.68, 8.68, 8.68, 8.28, 8.28, 8.4, 8.0, 7.87, 7.48, 7.48, 6.95, 6.03, 5.75, 5.58, 8.17, 8.91, 9.16, 9.16, 9.33, 9.39, 9.79, 9.68, 9.35, 9.68, 9.97, 9.97, 10.41, 10.45, 14.86, 16.99, 8.4, 5.3, 4.71, 3.91, 3.27, 3.91, 4.46, 4.46, 5.53, 5.82, 6.32, 6.32, 6.32, 5.72, 5.72, 5.72, 5.72, 5.72, 6.34, 6.34, 6.34, 6.34, 6.34, 6.65, 6.65, 6.95, 6.95, 6.95, 6.95, 6.95, 6.95, 7.23, 7.23, 7.23, 7.23, 7.23, 7.51, 7.51, 7.51, 7.51, 7.51, 7.73, 7.73, 7.73, 8.0, 8.0, 8.0, 8.55, 8.55, 8.55, 8.82, 8.82, 8.82, 8.82, 8.82, 8.82, 8.82, 8.82, 8.82, 8.82, 8.82, 8.82, 8.82, 8.82, 9.2, 9.07, 8.68, 8.68, 8.68, 8.68, 8.68, 8.68, 8.28, 8.15, 7.76, 7.76, 7.61, 7.23, 6.7, 6.95, 5.86, 5.86, 7.96, 8.58, 8.91, 8.73, 8.73, 8.73, 9.34, 9.35, 9.24, 9.06, 9.54, 9.97, 10.41, 10.45, 12.63, 18.14, 13.44, 6.82, 3.91, 3.15, 2.99, 2.99, 3.6, 4.46, 4.5, 5.53, 5.53, 5.53, 5.53, 5.72, 5.72, 5.72, 5.72, 5.72, 6.34, 6.34, 6.34, 6.34, 6.34, 6.34, 6.34, 6.64, 6.64, 6.64, 6.95, 6.95, 6.95, 6.95, 7.23, 7.23, 7.23, 7.23, 7.23, 7.23, 7.51, 7.51, 7.51, 7.51, 7.51, 7.73, 7.73, 8.0, 8.0, 8.0, 8.0, 8.18, 8.55, 8.82, 8.82, 8.82, 8.82, 8.82, 8.82, 8.82, 8.82, 8.82, 8.82, 8.82, 8.82, 8.82, 8.82, 8.43, 8.68, 8.68, 8.68, 8.68, 8.68, 8.68, 8.68, 8.15, 8.15, 7.76, 7.61, 7.23, 7.07, 6.7, 6.51, 6.28, 6.51, 7.2, 9.42, 8.73, 8.73, 8.89, 9.34, 9.39, 9.39, 9.39, 9.7, 10.14, 10.6, 10.6, 12.37, 17.7, 17.67, 10.35, 6.08, 3.69, 2.31, 3.15, 3.8, 3.91, 4.26, 4.26, 5.1, 5.1, 5.1, 5.72, 5.72, 5.72, 5.72, 6.01, 6.34, 6.34, 6.34, 6.34, 6.34, 6.34, 6.34, 6.34, 6.64, 6.64, 6.95, 6.95, 6.95, 6.95, 6.95, 7.23, 7.23, 7.23, 7.23, 7.23, 7.23, 7.23, 7.51, 7.51, 7.51, 7.51, 7.73, 7.73, 8.0, 8.0, 8.0, 8.0, 8.0, 8.43, 8.82, 8.82, 8.82, 8.43, 8.43, 8.43, 8.43, 8.43, 8.43, 8.43, 8.43, 8.43, 8.43, 8.43, 8.43, 8.43, 8.43, 8.43, 8.43, 8.43, 8.43, 8.15, 8.15, 8.15, 7.61, 7.61, 7.07, 7.07, 6.51, 6.51, 6.51, 7.34, 9.13, 8.73, 9.83, 8.49, 8.94, 9.39, 9.39, 9.39, 9.39, 10.25, 10.6, 10.6, 11.93, 16.82, 19.03, 13.94, 10.5, 7.44, 5.1, 3.15, 3.15, 3.8, 4.34, 4.56, 5.63, 5.63, 5.63, 5.72, 5.72, 5.72, 5.72, 6.01, 6.01, 6.34, 6.34, 6.34, 6.34, 6.34, 6.34, 6.34, 6.64, 6.64, 6.95, 6.95, 6.95, 6.95, 6.95, 6.95, 7.23, 7.23, 7.23, 7.23, 7.23, 7.23, 7.23, 7.23, 7.51, 7.51, 7.51, 7.51, 7.73, 8.0, 8.0, 8.0, 8.0, 8.0, 8.43, 8.43, 8.43, 8.43, 8.43, 8.43, 8.43, 8.43, 8.43, 8.43, 8.43, 8.43, 8.43, 8.43, 8.43, 8.43, 8.43, 8.43, 8.43, 8.43, 8.27, 8.27, 7.9, 7.9, 7.35, 7.61, 7.07, 7.07, 6.87, 6.51, 6.51, 6.51, 7.2, 7.21, 9.74, 8.49, 8.94, 8.94, 8.94, 8.9, 9.35, 9.24, 10.14, 10.58, 10.84, 14.58, 18.14, 17.05, 12.58, 10.5, 8.34, 6.4, 4.18, 3.65, 3.82, 4.99, 5.9, 5.9, 5.9, 5.72, 5.72, 5.72, 5.72, 6.01, 6.01, 6.34, 6.34, 6.34, 6.34, 6.34, 6.34, 6.34, 6.64, 6.64, 6.95, 6.95, 6.95, 6.95, 6.95, 6.95, 7.23, 7.23, 7.23, 7.23, 7.23, 7.23, 7.23, 7.23, 7.51, 7.51, 7.51, 7.51, 7.73, 8.0, 8.0, 8.0, 8.0, 8.0, 8.43, 8.43, 8.43, 8.43, 8.43, 8.43, 8.43, 8.43, 8.43, 8.43, 8.43, 8.43, 8.43, 8.43, 8.43, 8.43, 8.43, 8.43, 8.43, 8.43, 8.27, 8.27, 7.9, 7.9, 7.35, 7.61, 7.07, 7.07, 6.87, 6.51, 6.51, 6.51, 7.2, 7.21, 9.74, 8.49, 8.94, 8.94, 8.94, 8.9, 9.35, 9.24, 9.54, 10.41, 10.84, 12.2, 15.3, 17.05, 15.25, 11.76, 10.79, 9.77, 7.27, 4.54, 3.39, 4.36, 5.45, 5.45, 5.45]}, {"header": {"dx": 0.06612293990616946, "dy": 0.0552356325346848, "nx": 98, "ny": 59, "la1": 35.046912555036876, "la2": 31.78801023549047, "lo1": -121.43107172385933, "lo2": -114.95102361305473, "refTime": "2026040623", "parameterCategory": 1, "parameterNumber": 3}, "data": [-7.6, -7.6, -7.6, -7.6, -7.6, -7.32, -7.32, -7.32, -6.98, -6.98, -6.34, -5.29, -4.3, -3.39, -2.59, -1.84, -0.93, 0.0, 0.0, 0.0, -1.47, -1.26, -1.67, -3.45, -5.58, -6.26, -6.17, -5.37, -5.37, -5.37, -5.4, -5.4, -5.26, -5.36, -5.26, -5.4, -5.37, -4.89, -4.74, -4.58, -4.16, -4.94, -5.46, -6.24, -6.4, -6.79, -7.36, -7.36, -6.31, -5.6, -4.87, -4.3, -3.53, -2.41, -1.7, -0.86, 0.0, 0.0, 0.0, 0.0, 0.82, 0.85, 1.62, 1.68, 2.57, 1.84, 1.75, 1.95, 2.28, 1.33, 1.39, 0.0, 0.0, 0.0, 1.39, 0.0, 0.0, 0.0, 0.0, 0.0, 0.0, -1.4, -1.52, -1.55, -1.4, -1.4, 0.0, 0.0, 0.0, 0.0, -1.25, 0.0, 0.0, 0.0, 0.0, 0.0, 0.0, 0.0, -7.6, -7.6, -7.6, -7.6, -7.6, -7.32, -7.32, -6.98, -6.98, -6.98, -6.35, -6.57, -5.14, -4.6, -3.92, -2.49, -1.94, -1.39, -1.33, -1.75, -2.97, -2.69, -3.8, -5.59, -6.21, -6.26, -5.94, -5.6, -5.6, -6.0, -5.94, -5.94, -6.17, -6.26, -6.17, -6.36, -6.4, -5.95, -5.49, -5.37, -6.01, -6.3, -7.59, -7.78, -8.3, -8.56, -8.05, -7.01, -5.72, -5.0, -4.3, -4.3, -4.3, -2.95, -2.1, -1.64, -0.8, 0.0, 0.0, 0.0, 0.0, 0.79, 0.82, 0.85, 1.6, 0.85, 0.94, 0.94, 1.04, 1.14, 0.0, 0.0, 0.0, 0.0, 0.0, 0.0, 0.0, 0.0, 0.0, 0.0, 0.0, -1.4, -1.52, -1.55, -1.4, -1.4, 0.0, 0.0, 0.0, 0.0, -1.25, 0.0, 0.0, 0.0, 0.0, 0.0, 0.0, 0.0, -7.6, -7.6, -7.6, -7.6, -7.6, -7.32, -7.32, -7.27, -6.98, -6.69, -6.35, -5.72, -6.0, -5.14, -4.07, -3.36, -3.36, -3.51, -2.83, -2.7, -2.69, -2.97, -2.69, -5.69, -7.47, -6.71, -6.02, -6.0, -6.0, -6.16, -6.88, -6.88, -7.08, -7.6, -6.64, -7.47, -6.99, -6.8, -6.82, -6.79, -7.02, -7.59, -8.93, -9.56, -9.8, -8.66, -7.24, -6.0, -4.92, -4.25, -4.25, -4.44, -4.13, -3.39, -2.95, -1.58, -1.64, -0.83, 0.0, 0.0, 0.0, 0.0, 0.0, 0.0, 0.0, 0.89, 0.85, 0.89, 1.04, 0.0, 0.0, 0.0, 0.0, 0.0, 0.0, -1.28, -1.52, -1.64, -2.95, -2.97, -2.99, -1.84, -3.0, -3.79, -3.39, -2.54, -2.23, -1.99, -2.12, -2.69, -1.47, -1.32, 0.0, 0.0, 0.0, 0.0, -1.03, -0.88, -7.59, -7.6, -7.6, -7.6, -7.6, -7.6, -7.6, -7.27, -6.98, -6.97, -6.67, -6.65, -6.57, -5.52, -5.14, -5.14, -5.14, -4.62, -4.44, -3.36, -2.7, -2.7, -2.58, -3.6, -6.21, -8.05, -6.45, -6.45, -6.45, -6.94, -6.94, -7.54, -7.54, -8.05, -8.05, -8.38, -8.48, -8.8, -8.8, -9.42, -10.04, -9.96, -9.56, -8.85, -8.12, -6.57, -5.76, -4.07, -3.36, -3.21, -2.97, -3.51, -3.51, -2.49, -2.6, -2.51, -2.34, -1.64, -0.8, -0.8, -0.82, 0.0, 0.0, 0.0, 0.0, 0.0, 0.0, 0.81, 0.0, 0.0, 0.0, -1.28, -2.42, -2.23, -2.23, -2.6, -2.6, -3.44, -3.68, -3.32, -2.82, -3.4, -3.0, -3.79, -3.82, -4.34, -4.4, -4.43, -5.03, -4.6, -3.11, -2.69, -1.1, -1.03, -1.03, -1.1, -2.12, -1.84, -7.59, -7.3, -7.3, -7.6, -7.6, -7.6, -7.6, -7.3, -6.98, -6.97, -6.67, -6.95, -6.98, -6.15, -5.76, -5.76, -5.41, -6.0, -5.35, -5.14, -5.32, -5.46, -4.2, -3.87, -6.11, -7.89, -7.94, -7.89, -7.89, -7.1, -7.6, -8.05, -8.05, -8.05, -8.94, -9.29, -9.46, -10.05, -10.85, -11.36, -10.66, -9.0, -8.31, -6.7, -5.9, -5.06, -4.4, -3.36, -2.59, -2.59, -1.76, -1.62, -1.62, -1.69, -2.49, -2.41, -2.51, -2.34, -1.58, -1.7, -1.63, -0.79, 0.0, 0.0, 0.0, 0.0, 0.0, 0.85, 0.0, 0.0, -1.11, -2.28, -2.95, -3.11, -4.4, -5.21, -4.6, -4.4, -4.4, -3.8, -3.91, -3.4, -3.0, -4.11, -4.4, -4.98, -5.37, -6.7, -7.68, -6.7, -5.06, -4.14, -3.0, -2.12, -3.0, -3.0, -2.49, -2.16, -7.59, -7.59, -7.3, -7.3, -7.6, -7.6, -7.6, -7.3, -7.3, -6.97, -6.95, -7.25, -6.7, -6.15, -5.75, -5.76, -6.0, -6.67, -7.36, -7.36, -7.42, -6.95, -6.95, -6.64, -7.81, -8.38, -8.49, -8.49, -8.49, -8.49, -8.05, -8.05, -8.0, -7.85, -7.45, -7.89, -8.56, -8.95, -10.43, -11.37, -10.32, -8.73, -7.76, -6.53, -5.64, -5.06, -4.4, -3.36, -2.59, -2.71, -1.69, -1.69, -1.69, -1.69, -1.63, -1.63, -1.7, -1.7, -1.58, -1.7, -1.63, -0.85, -0.85, 0.0, 0.0, 0.82, 0.89, 0.85, 0.0, 0.0, 0.0, -1.07, -2.02, -2.97, -4.26, -5.53, -5.82, -5.46, -4.66, -3.6, -3.68, -5.06, -5.06, -4.74, -5.72, -6.9, -6.98, -7.68, -8.38, -7.33, -4.75, -4.19, -3.45, -3.22, -3.72, -3.68, -3.45, -2.99, -7.59, -7.59, -7.59, -7.3, -7.3, -7.3, -7.3, -7.3, -7.59, -7.27, -6.95, -6.92, -7.48, -5.76, -5.86, -5.76, -6.24, -7.1, -7.64, -8.16, -7.73, -7.36, -6.83, -7.51, -8.0, -8.49, -8.49, -8.05, -8.05, -7.6, -8.94, -8.0, -8.06, -7.76, -7.35, -7.71, -8.56, -8.4, -9.97, -10.45, -10.91, -8.63, -7.81, -6.32, -5.59, -4.12, -3.32, -3.49, -3.36, -2.6, -2.6, -1.76, -1.69, -1.63, -1.63, -1.63, -1.7, -1.7, -1.58, -1.7, -0.82, -0.85, 0.0, 0.0, 0.82, 0.85, 0.82, 0.0, 0.0, 0.0, 0.0, -0.89, -0.85, -1.93, -2.83, -3.77, -4.87, -5.37, -5.37, -5.69, -4.75, -5.69, -5.69, -5.69, -6.64, -8.38, -7.9, -7.27, -6.01, -4.11, -3.35, -3.35, -2.99, -3.91, -4.19, -4.47, -3.45, -2.99, -7.59, -7.59, -7.59, -7.59, -7.3, -7.3, -7.3, -7.3, -7.59, -7.27, -7.51, -7.44, -8.35, -7.26, -6.94, -6.2, -6.87, -6.79, -7.12, -7.24, -6.7, -5.99, -5.6, -4.87, -4.4, -6.01, -6.71, -5.81, -4.92, -7.6, -8.94, -9.76, -9.97, -9.04, -7.42, -7.35, -6.02, -4.0, -5.36, -7.6, -7.15, -5.51, -2.4, 0.0, 0.0, 0.0, 0.0, -0.85, -1.75, -1.22, -0.89, -0.89, -0.85, -0.82, -0.82, -0.82, -0.86, -0.8, -0.8, -0.86, -0.82, 0.0, 0.0, 0.82, 0.82, 0.85, 0.0, 0.0, 0.0, 0.0, 0.0, 0.0, 0.0, 0.0, 0.0, -0.71, -1.73, -3.97, -5.37, -6.18, -5.84, -5.69, -5.69, -6.01, -5.9, -6.71, -4.8, -3.8, -2.32, -2.32, -1.7, -1.7, -1.84, -2.8, -3.97, -4.19, -3.91, -3.91, -7.59, -7.59, -7.59, -7.59, -7.3, -7.3, -7.6, -7.3, -7.59, -7.59, -7.81, -8.93, -10.79, -10.41, -9.69, -9.3, -8.72, -8.3, -7.51, -7.1, -7.24, -6.08, -5.11, -4.24, -3.23, -1.16, 0.0, 4.0, 2.06, -4.22, -7.06, -6.51, -5.21, -3.47, -3.91, -4.43, -6.26, 7.21, 6.26, 5.81, 6.71, 6.36, 6.08, 5.69, 4.37, 3.77, 2.83, 1.47, 0.94, 0.89, 1.28, 0.0, 0.0, 0.0, 0.0, 0.0, -0.8, -0.8, -0.8, -0.82, 0.0, 0.0, 0.0, 0.0, 0.85, 0.82, 0.85, 0.82, 0.89, 0.82, 0.0, 0.0, 0.0, 0.0, 0.0, 0.0, 0.0, -0.94, -2.82, -5.69, -6.0, -5.24, -5.36, -5.06, -3.6, 0.0, 0.0, 0.0, 0.0, 0.0, -0.78, -0.78, -1.52, -2.64, -3.72, -4.19, -4.74, -3.22, -7.59, -7.59, -7.59, -7.59, -7.59, -7.6, -7.6, -7.6, -7.6, -8.19, -8.45, -9.59, -9.37, -9.86, -10.79, -11.42, -12.03, -11.64, -11.72, -10.79, -10.41, -9.42, -8.54, -7.19, -5.86, -2.42, 1.33, 4.37, 2.99, 0.0, -1.84, 6.26, 7.6, 6.32, 3.6, 0.0, 4.74, 6.26, 7.89, 7.67, 6.45, 6.45, 5.53, 4.68, 2.67, 2.67, 2.54, 2.69, 2.57, 2.7, 1.84, 0.85, 0.0, 0.0, 0.0, -0.79, -0.82, -0.82, -1.63, -1.69, -0.85, -0.85, 0.0, 2.54, 3.63, 3.21, 2.59, 2.49, 1.5, 0.85, 0.0, 0.0, 0.0, 0.0, -0.82, -0.81, 0.0, 0.0, -0.84, -3.6, -6.23, -5.36, -5.81, -6.71, 0.0, 0.0, 0.0, 0.0, -1.4, -0.89, -0.74, -0.74, -1.73, -1.73, -2.64, -3.47, -3.22, 0.0, -7.59, -7.59, -7.59, -7.59, -7.59, -7.6, -7.6, -7.6, -7.9, -8.22, -8.5, -10.01, -9.77, -9.48, -9.67, -10.63, -11.39, -8.43, -7.9, -7.35, -11.26, -11.02, -9.76, -8.02, -6.69, -4.14, 1.98, 4.43, 1.98, 0.0, 1.63, 6.58, 6.71, 5.6, 3.76, 3.97, 4.83, 7.67, 6.45, 6.18, 6.04, 5.21, 4.12, 2.69, 2.54, 1.73, 2.67, 2.67, 1.75, 0.89, 0.0, 0.0, -0.89, -1.75, -2.47, -2.59, -3.25, -3.25, -3.51, -3.36, -2.7, 0.0, 3.97, 6.79, 6.18, 4.83, 3.21, 1.76, 0.93, 0.0, -0.93, -1.7, -1.7, -1.69, -1.62, -1.68, -1.75, -1.84, -1.05, -1.4, -5.06, -4.24, -5.09, -6.26, -6.71, -5.37, -6.64, -4.8, -3.25, -2.06, -1.55, -1.84, -1.73, -0.89, -0.89, -0.95, 0.0, 1.99, -7.59, -7.59, -7.59, -7.59, -7.59, -7.9, -7.9, -7.9, -8.22, -8.22, -8.82, -9.46, -10.09, -9.21, -8.2, -6.9, -5.67, -5.09, -5.1, -4.69, -4.66, -4.2, -3.27, -3.92, -2.33, 0.0, 5.81, 1.6, 4.47, 2.6, 3.72, 5.59, 6.13, 4.43, 3.22, 4.19, 4.95, 5.82, 6.32, 5.21, 5.46, 4.2, 3.63, 2.33, 1.25, 2.8, 3.2, 2.82, 1.49, 0.0, -0.89, -1.84, -2.83, -3.45, -4.34, -4.56, -5.06, -5.06, -6.04, -5.36, 0.0, 7.6, 7.89, 8.4, 6.73, 5.1, 2.83, 0.98, -0.93, -2.71, -3.95, -4.13, -3.78, -3.49, -3.49, -3.81, -4.0, -3.14, -2.83, -1.14, 0.0, -3.79, -5.81, -6.26, -6.26, -7.81, -9.2, -8.22, -6.2, -4.21, -3.0, -1.63, -0.78, 0.0, 0.0, 0.89, 0.95, 1.98, -7.59, -7.27, -7.59, -7.59, -7.86, -7.9, -7.9, -8.22, -8.22, -8.53, -8.85, -9.17, -9.8, -9.84, -9.2, -7.7, -5.38, -4.38, -3.25, -2.54, -1.9, -1.25, 0.0, 0.0, 0.6, 1.67, 1.14, 1.9, 2.24, 2.54, 2.4, 4.47, 4.47, 4.47, 3.97, 4.87, 4.95, 5.53, 4.5, 4.34, 3.63, 3.32, 2.44, 1.65, 1.32, 3.47, 4.74, 4.29, 1.4, 0.0, 0.0, -1.63, -2.35, -0.89, 0.0, 0.0, -1.58, -4.83, -6.45, -5.64, 8.49, 8.9, 8.99, 8.17, 7.2, 5.24, 3.45, 0.93, -0.93, -3.82, -5.9, -6.83, -6.04, -5.76, -5.36, -5.36, -5.2, -4.21, -3.99, -2.4, 0.0, 0.0, -4.43, -7.15, -7.6, -8.94, -10.96, -9.2, -6.32, -5.15, -3.47, -1.7, 0.0, 0.0, 0.95, 0.89, 0.83, 1.98, -7.59, -7.59, -7.88, -7.59, -7.86, -7.9, -7.9, -8.22, -8.22, -8.53, -8.85, -8.87, -9.5, -9.84, -9.48, -8.37, -7.2, -5.3, -4.1, -3.69, -2.4, -1.81, -0.58, 0.0, 0.57, 1.14, 1.16, 0.57, 1.66, 1.8, 1.41, 1.98, 2.66, 3.0, 3.97, 4.87, 4.42, 4.94, 4.5, 2.69, 1.94, 1.84, 1.2, 1.32, 3.0, 5.06, 5.21, 4.29, 3.2, 1.73, 1.4, 0.0, 2.12, 5.95, 6.8, 5.21, 3.6, -1.58, -7.06, -0.0, 8.77, 9.83, 9.46, 8.48, 6.8, 5.49, 3.77, 1.84, 0.0, -0.94, -4.98, -7.4, -8.06, -7.76, -7.15, -6.79, -6.01, -5.69, -5.69, -6.08, -3.97, -1.84, -1.73, -4.43, -7.6, -9.39, -10.28, -8.38, -6.7, -5.84, -5.69, -3.2, 0.0, 0.0, 0.95, 0.95, 0.95, 1.84, -7.59, -7.59, -7.59, -7.86, -7.86, -7.9, -7.9, -8.22, -8.24, -8.53, -8.56, -8.87, -8.87, -9.21, -9.49, -8.81, -7.66, -6.48, -5.26, -4.73, -3.52, -2.38, -1.73, -0.58, 0.0, 1.17, 1.73, 1.69, 1.16, 0.61, 0.0, 0.0, 0.0, 2.82, 2.82, 4.14, 5.59, 4.5, 3.7, 1.75, 0.0, 0.0, 0.0, 1.25, 4.56, 6.52, 7.06, 6.08, 4.29, 3.0, 3.2, 3.2, 6.08, 6.8, 6.4, 5.06, 1.84, -0.84, -1.63, 7.63, 8.94, 9.29, 7.6, 6.9, 6.44, 4.83, 4.83, 3.15, 3.15, 0.0, -1.95, -6.64, -8.8, -9.13, -8.0, -7.6, -7.2, -6.21, -6.0, -6.0, -5.95, -3.72, -1.52, -3.72, -6.32, -8.94, -7.6, -7.6, -6.45, -6.8, -7.67, -6.01, -2.12, 0.0, 0.0, 0.89, 2.16, 2.16, -7.59, -7.59, -7.86, -7.86, -7.86, -8.19, -8.22, -8.22, -8.24, -8.53, -8.56, -8.58, -8.59, -8.59, -8.85, -8.43, -7.73, -7.0, -5.98, -5.26, -4.18, -2.95, -1.79, -0.58, 0.0, 1.18, 2.33, 2.3, 1.11, 0.55, 0.0, 0.0, 0.0, 0.0, 1.32, 3.0, 4.5, 4.12, 2.46, 0.0, 0.0, 0.0, 0.0, 4.14, 5.37, 7.06, 7.47, 6.9, 5.37, 4.56, 3.91, 4.56, 5.37, 5.37, 4.56, 2.66, 0.0, 0.0, 1.22, 6.58, 8.05, 7.44, 6.28, 5.37, 4.29, 3.4, 3.0, 3.32, 3.32, 0.0, -2.67, -6.32, -8.72, -8.9, -7.1, -4.98, -3.93, -3.79, -4.46, -6.26, -6.26, -5.6, -5.06, -4.22, -5.95, -6.58, -6.26, -6.71, -6.64, -6.79, -8.3, -5.37, 0.0, 0.0, 0.0, 0.0, 1.14, 1.14, -7.59, -7.59, -7.86, -7.86, -7.86, -8.19, -8.22, -7.93, -8.24, -8.24, -8.56, -8.58, -8.59, -8.59, -8.2, -7.93, -7.5, -7.03, -6.52, -5.3, -4.07, -2.95, -2.31, -0.58, 0.57, 1.17, 1.79, 1.74, 1.15, 0.0, -0.57, -1.16, -1.14, -1.14, 0.0, 1.65, 2.67, 2.69, 1.25, 0.0, 0.0, 1.1, 4.83, 5.49, 6.9, 7.28, 7.28, 6.63, 6.01, 5.31, 4.37, 5.31, 5.31, 4.96, 4.96, 3.52, 1.33, 1.22, 3.61, 6.98, 7.27, 6.32, 4.14, 3.91, 2.82, 1.72, 1.49, 1.58, 0.0, -2.69, -4.37, -6.36, -6.26, -6.26, 2.8, 3.91, 3.55, 2.82, 0.96, -5.21, -6.71, -7.06, -6.64, -6.13, -7.2, -6.23, -5.81, -6.71, -7.06, -8.3, -8.94, -8.49, -6.01, -1.67, 0.0, 0.0, 0.0, 0.0, -7.59, -7.86, -7.86, -7.86, -8.19, -8.19, -8.22, -8.22, -8.24, -7.95, -8.56, -8.58, -8.87, -8.23, -8.22, -7.55, -7.5, -7.03, -5.88, -4.66, -3.55, -3.52, -2.87, -1.18, 0.0, 0.58, 0.0, 0.0, 0.0, -0.57, -1.12, -1.73, -1.78, -1.71, -1.18, 0.0, 0.0, 0.0, 0.0, 0.0, 1.4, 5.37, 6.08, 6.08, 6.28, 6.98, 6.98, 6.32, 5.59, 4.0, 4.0, 4.0, 4.96, 4.96, 4.96, 3.7, 3.7, 3.87, 4.88, 5.98, 5.72, 5.21, 3.8, 2.54, 1.25, 0.89, 0.0, 0.0, -1.4, -2.58, -2.99, 0.0, 6.28, 7.4, 7.48, 6.45, 5.2, 3.53, 2.59, -1.01, -6.79, -7.15, -7.6, -7.94, -7.63, -6.52, -6.52, -6.2, -7.06, -7.89, -8.49, -8.94, -8.94, -6.64, -3.32, -1.49, 0.0, 0.0, -7.86, -7.86, -7.86, -8.19, -8.19, -7.9, -8.22, -8.22, -8.24, -8.24, -8.24, -8.24, -8.24, -8.23, -8.23, -8.86, -7.55, -7.13, -5.77, -4.07, -3.55, -4.15, -4.63, -4.07, -2.35, -2.38, -1.69, -2.47, -2.39, -1.12, -1.28, -1.45, -2.2, -2.54, -2.29, -2.12, -2.26, -2.23, -1.68, 0.0, 1.65, 3.6, 4.14, 4.14, 5.31, 6.32, 5.21, 5.21, 4.2, 4.2, 3.52, 4.0, 4.96, 4.96, 4.96, 5.21, 4.66, 4.88, 5.98, 5.1, 3.87, 2.46, 2.46, 0.94, 0.0, 0.0, 0.0, -0.84, -1.75, -1.23, 1.28, 5.11, 7.45, 7.32, 5.79, 4.13, 2.45, 0.83, 0.0, -0.85, -7.6, -7.6, -8.49, -8.05, -8.82, -8.0, -7.15, -8.05, -8.05, -6.51, -7.37, -8.49, -9.83, -9.21, -6.32, -2.4, 6.0, 6.0, -7.86, -7.86, -8.19, -7.9, -7.9, -7.9, -8.22, -8.22, -8.24, -8.24, -8.24, -8.24, -8.24, -7.96, -7.96, -7.83, -7.57, -6.7, -6.43, -5.86, -6.42, -6.48, -7.03, -8.16, -7.11, -6.4, -4.65, -2.23, -1.65, 0.0, 0.0, 0.0, 0.0, -2.4, -2.4, -2.18, -2.14, -2.23, -1.69, -0.54, 0.56, 2.19, 2.21, 2.92, 3.21, 3.7, 4.0, 4.2, 4.2, 2.46, 2.46, 4.0, 5.59, 6.32, 5.24, 5.36, 5.98, 5.38, 5.06, 3.61, 2.58, 1.26, 0.0, 0.0, 0.0, 0.0, -0.89, -0.84, -0.81, 0.0, 2.37, 4.76, 5.25, 4.34, 2.45, 0.0, -0.81, -2.39, -2.49, -3.55, -7.6, -7.54, -7.15, -6.71, -7.08, -6.79, -6.71, -0.0, -7.15, -5.81, -5.06, -8.05, -6.32, -8.94, 0.0, 7.6, 6.71, 6.71, -7.86, -7.86, -8.19, -7.9, -7.9, -7.9, -8.22, -8.22, -8.24, -8.24, -8.24, -8.24, -8.24, -7.96, -7.96, -7.55, -7.16, -6.94, -6.96, -8.61, -8.86, -6.88, -6.68, -6.94, -6.92, -5.8, -3.37, -1.65, 0.0, 0.53, 1.07, 0.63, 0.73, 0.0, -0.88, -1.41, -1.73, -1.67, -1.18, -0.57, 0.0, 1.12, 1.78, 2.37, 2.26, 2.46, 2.46, 2.58, 2.58, 1.26, 2.69, 4.37, 6.98, 6.98, 6.64, 5.59, 6.04, 6.14, 4.8, 2.28, 0.0, 0.0, 0.0, 0.0, -0.89, -0.89, -0.89, 0.0, 0.0, 0.0, 1.63, 3.46, 3.49, 0.85, -0.87, -3.39, -5.38, -4.93, -4.17, -3.36, -4.89, -7.1, -7.55, -6.71, -6.26, -5.81, -5.2, -3.79, -5.81, 0.0, 7.6, 7.63, 6.0, 6.0, 6.0, 5.58, 5.2, 5.2, -7.86, -7.86, -8.19, -7.9, -7.9, -8.22, -8.22, -7.93, -8.24, -8.24, -7.95, -8.24, -8.24, -7.96, -8.23, -7.57, -7.57, -7.16, -7.95, -8.16, -7.03, -5.32, -4.12, -5.05, -5.44, -4.51, -3.34, -1.66, -0.56, 0.0, 0.56, 0.57, 0.55, 0.0, 0.0, -0.55, -0.61, -0.59, -0.58, -0.56, 0.0, 0.0, 0.57, 1.16, 1.1, 1.76, 1.33, 1.33, 1.26, 1.2, 3.32, 6.01, 7.67, 6.98, 6.64, 6.64, 6.64, 6.83, 4.6, 1.26, 0.0, -0.8, -1.75, -1.75, -1.65, -1.73, -0.89, -0.89, 0.0, 0.0, 1.33, 3.68, 3.23, 0.0, -4.4, -6.31, -8.85, -8.58, -6.56, -4.23, -3.82, -5.24, -6.64, -7.08, -5.73, -4.77, -5.09, -5.81, -6.71, 0.0, 8.49, 7.45, 5.51, 4.66, 4.8, 3.79, -0.0, -0.0, -7.86, -7.86, -8.19, -7.9, -7.9, -8.22, -7.93, -7.93, -8.24, -8.24, -7.95, -8.24, -7.96, -8.24, -8.23, -7.57, -7.57, -7.55, -7.53, -7.73, -6.56, -4.55, -3.47, -2.87, -3.57, -3.72, -3.53, -2.3, -1.66, -0.56, 0.0, 0.0, 0.0, 0.0, 0.0, -0.55, -0.56, -0.57, -0.57, 0.0, 0.0, 0.0, 0.0, 0.59, 0.57, 1.23, 0.0, 0.0, 0.0, 1.4, 5.36, 8.05, 6.98, 6.98, 6.98, 6.64, 6.32, 6.18, 4.88, 2.54, 0.0, -0.89, -2.54, -3.6, -3.4, -2.51, -1.84, -0.89, 0.0, 0.89, 1.32, 1.26, -1.1, -6.0, -5.09, -6.7, -8.75, -10.02, -9.48, -7.1, -3.85, -1.84, -2.09, -4.09, -5.94, -5.94, -5.81, -5.81, -6.26, -5.94, -0.0, 4.74, 4.98, 4.4, 4.66, -0.0, -0.0, -0.0, -8.19, -8.19, -8.19, -8.19, -7.9, -8.22, -7.93, -7.93, -8.24, -8.24, -7.95, -8.24, -7.96, -8.24, -7.96, -7.57, -7.57, -7.55, -7.53, -7.06, -6.36, -5.38, -4.17, -3.53, -3.44, -2.96, -2.84, -2.87, -2.23, -1.69, -1.15, -0.58, -0.55, 0.0, -0.56, -0.56, -0.57, -0.54, -0.55, -0.56, 0.0, 0.0, 0.0, 0.0, 0.0, 0.0, 0.0, 0.0, 0.0, 2.69, 5.59, 6.32, 6.32, 6.01, 6.32, 6.32, 5.15, 5.53, 4.96, 4.0, 0.83, 0.0, -1.73, -3.55, -3.72, -1.05, 1.05, 3.0, 2.8, 1.63, 0.0, -2.49, -1.03, 0.0, -4.47, -4.92, -7.81, -8.58, -9.97, -7.59, -5.52, -3.25, -1.43, -0.73, -1.05, -5.81, -5.2, -5.81, -6.26, -6.36, -0.0, 0.96, 3.49, 5.21, 5.6, -0.0, -3.79, -3.79, -8.19, -8.19, -8.19, -8.19, -7.9, -7.9, -8.22, -7.93, -7.93, -8.24, -7.95, -8.24, -7.96, -7.96, -7.96, -7.85, -7.57, -7.55, -7.55, -7.1, -6.4, -5.88, -5.38, -4.7, -4.03, -3.41, -2.9, -2.82, -2.21, -1.69, -1.15, -1.15, -0.55, -0.55, -0.56, -0.56, -0.56, -0.56, -0.57, -0.54, -0.58, 0.0, 0.0, 0.0, 0.0, -0.61, -1.18, -0.54, 0.57, 1.69, 2.4, 3.52, 4.37, 4.37, 6.01, 6.32, 5.36, 4.22, 4.14, 4.14, 2.69, 1.73, 0.0, -1.03, 0.0, 4.65, 6.0, 5.49, 3.55, -0.84, -2.47, -2.41, -1.28, 0.0, 0.0, -2.6, -4.47, -6.36, -7.07, -7.67, -6.95, -4.99, -2.59, -0.74, 0.0, 0.0, 2.2, 4.92, -0.0, -3.79, -1.52, -0.0, 1.23, 2.12, 2.6, -0.0, -0.0, -0.0, -8.19, -8.19, -8.19, -8.19, -7.9, -7.9, -7.9, -7.93, -7.93, -8.24, -7.95, -7.95, -7.96, -7.96, -7.96, -7.85, -7.57, -7.57, -7.13, -6.88, -6.64, -6.4, -5.92, -5.21, -4.55, -4.03, -3.53, -3.0, -2.93, -2.3, -1.76, -1.69, -1.09, -1.15, -1.1, -0.59, -0.56, -0.56, -0.56, -0.57, -0.57, -0.54, -0.58, 0.0, 0.0, -0.56, -1.09, -0.57, 0.0, 0.0, 0.57, 0.59, 1.4, 3.15, 4.6, 4.6, 4.37, 3.6, 4.56, 4.14, 2.69, 2.46, 1.65, 0.95, 4.11, 7.37, 7.35, 5.77, 0.89, -0.89, -2.57, -3.53, -2.51, -1.64, -1.0, -1.71, -7.44, -6.07, -6.32, -6.01, -5.63, -1.93, 0.0, 1.05, 1.58, 2.83, 4.87, 4.89, 5.36, -2.2, -2.98, -0.0, -0.0, -0.0, -0.0, -0.0, -0.0, -0.0, -8.19, -8.19, -8.19, -8.19, -7.9, -7.9, -7.9, -8.22, -7.93, -8.24, -7.95, -7.95, -8.24, -7.96, -7.87, -7.59, -7.57, -7.57, -6.9, -7.13, -6.43, -6.43, -5.73, -5.25, -5.25, -4.74, -4.07, -3.41, -3.44, -2.93, -2.28, -2.82, -2.3, -2.3, -1.67, -1.69, -1.79, -1.71, -1.16, -1.11, -1.12, -1.12, -0.57, -0.58, -0.58, -0.58, -0.58, -0.57, -0.54, -0.56, 0.0, 0.0, 0.0, 0.59, 2.09, 3.17, 3.32, 3.6, 4.75, 3.97, 2.69, 1.84, 1.33, 2.64, 6.9, 7.63, 7.2, 3.4, 0.84, 0.0, -1.75, -3.51, -4.01, -3.29, -2.6, -4.54, -9.2, -6.71, -5.94, -5.06, 0.0, 6.51, 6.26, 4.98, 4.74, 4.58, 4.42, 4.42, 2.76, -4.47, -2.84, -2.95, -2.16, -1.3, -1.41, -0.0, -0.0, -0.0, -8.19, -8.19, -8.19, -8.19, -7.9, -7.9, -7.9, -8.22, -8.22, -7.93, -7.95, -7.95, -8.24, -7.96, -7.6, -7.59, -7.59, -7.57, -7.16, -6.9, -6.68, -6.43, -5.77, -5.77, -5.28, -4.77, -4.77, -3.96, -3.96, -3.47, -3.47, -2.82, -2.96, -2.84, -2.3, -2.21, -2.33, -2.35, -1.71, -1.73, -1.65, -1.18, -0.56, -0.56, -0.56, -1.12, -1.75, -1.12, -1.12, -1.12, -1.14, -1.18, -0.57, 0.0, 0.0, 1.18, 1.58, 3.6, 5.93, 4.22, 1.84, 0.85, 0.0, 3.55, 7.2, 8.54, 5.24, 2.67, 0.89, 0.0, -0.85, -2.49, -3.29, -4.17, -5.0, -5.21, -9.03, -6.2, -4.92, -4.02, 2.2, 2.58, 2.68, 4.47, 4.98, 4.89, 3.47, 2.82, 1.84, 0.0, -3.72, -4.11, -3.49, -2.76, -3.6, -5.21, -7.6, -7.6, -8.19, -8.19, -8.19, -8.19, -7.9, -7.9, -7.9, -7.9, -8.22, -7.93, -8.24, -7.95, -7.95, -7.96, -7.6, -7.59, -7.59, -7.32, -7.16, -6.9, -6.46, -6.46, -6.0, -5.77, -5.11, -5.32, -4.65, -4.65, -3.99, -3.47, -3.34, -3.5, -3.5, -2.84, -2.84, -2.84, -2.87, -2.23, -2.35, -2.25, -2.28, -1.65, -1.67, -1.62, -0.85, 0.0, -1.12, -2.83, -4.0, -2.19, -2.37, -1.73, -1.8, -1.07, -0.57, 0.0, 1.73, 3.4, 4.75, 4.22, 2.09, 0.0, 1.65, 5.69, 7.44, 6.32, 5.1, 2.83, 0.0, -0.85, -1.68, -2.41, -3.19, -4.06, -5.06, -6.72, -9.6, -5.6, -5.2, -3.35, -0.0, 2.53, 2.79, 2.49, 4.34, 3.79, 2.99, 1.72, 1.84, 2.2, 0.0, -4.11, -4.74, -5.06, -6.79, -7.81, -8.06, -8.06, -8.19, -8.19, -8.19, -8.19, -8.19, -7.9, -7.9, -7.9, -7.9, -8.22, -7.93, -7.95, -7.95, -7.89, -7.6, -7.6, -7.59, -7.59, -6.92, -6.92, -6.46, -6.46, -6.5, -5.8, -5.14, -5.14, -4.65, -4.68, -4.02, -3.5, -3.5, -3.5, -3.5, -3.37, -3.37, -2.99, -2.87, -2.87, -2.75, -2.25, -2.25, -2.28, -2.3, -2.33, -1.16, 0.0, -0.82, -2.16, -3.22, -3.83, -3.83, -3.49, -2.82, -1.73, -0.63, 0.0, 0.0, 0.73, 2.66, 3.2, 1.96, 0.84, 3.4, 6.79, 6.01, 5.24, 4.68, 3.8, 0.0, -2.69, -4.4, -4.13, -3.42, -3.44, -4.51, -5.99, -5.33, -4.6, -6.26, -2.8, -0.0, 1.61, 2.23, 2.68, 2.24, 3.72, 2.76, 1.72, 1.45, 2.12, 1.08, -5.81, -6.0, -6.44, -6.79, -8.0, -7.63, -7.63, -8.19, -8.19, -8.19, -8.19, -8.19, -8.19, -7.9, -7.9, -7.9, -8.22, -7.93, -7.93, -7.95, -7.61, -7.6, -7.6, -7.33, -7.59, -7.19, -6.92, -6.92, -6.5, -6.27, -5.83, -5.83, -5.17, -5.17, -4.51, -4.02, -4.02, -4.02, -4.02, -3.5, -3.37, -3.53, -3.53, -3.39, -2.87, -2.75, -2.9, -2.77, -2.93, -2.8, -2.33, -2.37, -2.49, -1.69, -0.59, -0.61, -2.68, -2.73, -3.64, -2.54, -1.7, -0.54, 0.0, 0.0, 0.0, 0.0, 0.0, 0.95, 1.84, 4.5, 4.5, 3.45, 2.54, 2.51, 1.49, 0.0, -1.4, -4.74, -4.56, -3.36, -2.81, -4.05, -5.81, -5.48, -2.62, 0.0, 0.0, 3.48, 1.13, 1.61, 1.9, 1.86, 2.12, 1.49, 1.03, 0.78, 0.76, 0.78, -1.41, -6.26, -6.32, -6.08, -6.4, -6.51, -6.51, -7.86, -7.86, -8.19, -8.19, -8.19, -8.19, -8.19, -7.9, -7.9, -7.9, -8.22, -7.93, -7.93, -7.61, -7.61, -7.6, -7.6, -7.33, -6.94, -6.94, -6.94, -6.27, -6.27, -5.62, -5.62, -5.17, -5.2, -4.54, -4.81, -4.05, -4.51, -4.51, -4.02, -3.37, -3.53, -3.53, -3.39, -3.39, -2.75, -2.9, -2.9, -2.93, -2.8, -2.83, -3.32, -3.45, -2.25, 0.0, 0.0, 0.0, -0.76, -1.36, -0.59, 0.0, 0.0, 0.0, 0.0, 0.0, -0.7, -0.55, 0.0, 1.95, 3.45, 2.99, 2.44, 1.67, 0.0, 0.0, 0.0, 0.0, 0.0, 0.0, 0.0, -1.23, -3.09, -4.96, -5.99, -4.81, -3.29, -1.07, 3.22, 4.0, 1.8, 0.57, 1.26, 1.79, 1.58, 0.61, 0.0, 0.0, 0.0, 0.0, -4.11, -6.8, -7.2, -6.4, -6.94, -6.94, -7.86, -7.86, -7.86, -7.86, -7.86, -7.86, -7.86, -8.19, -7.9, -7.9, -7.9, -7.93, -7.61, -7.61, -7.61, -7.61, -7.33, -7.33, -6.96, -6.94, -6.94, -6.53, -6.29, -5.86, -5.86, -5.2, -5.0, -4.76, -4.54, -4.98, -3.91, -4.12, -4.08, -4.08, -3.89, -3.39, -3.39, -3.39, -3.42, -2.9, -2.9, -2.77, -2.93, -2.8, -3.49, -3.45, -2.9, -1.69, -0.57, 0.0, 0.0, 0.0, 0.0, 0.0, 0.0, 0.0, 0.0, 0.0, -0.72, -0.67, 0.0, 1.95, 2.83, 2.67, 1.75, 0.89, 0.0, -0.84, 0.0, 0.0, 0.85, 1.67, 0.85, 0.0, -1.83, -3.16, -3.16, -3.51, -3.25, -1.6, 2.69, 4.8, 0.0, -0.0, -0.0, 0.0, 0.0, 0.0, -0.89, -0.89, -0.83, 0.0, 0.0, 0.0, -7.6, -7.07, -7.21, -7.21, -8.15, -8.15, -7.86, -7.86, -7.86, -7.86, -7.86, -7.86, -7.9, -7.6, -7.6, -7.6, -7.61, -7.61, -7.33, -7.61, -7.33, -6.96, -6.96, -6.96, -6.29, -6.29, -6.29, -5.86, -5.64, -5.2, -5.0, -5.23, -5.2, -4.51, -3.89, -3.45, -3.65, -3.65, -4.12, -3.42, -3.57, -3.57, -3.57, -3.57, -3.42, -2.77, -2.93, -2.93, -2.93, -2.93, -2.77, -2.35, -1.69, -1.14, -1.14, -0.58, -0.59, 0.0, 0.0, 0.0, 0.0, 0.0, 0.0, -0.64, 0.0, 1.32, 2.99, 2.54, 1.73, 0.84, 0.0, 0.0, 0.0, 0.0, 0.89, 1.39, 1.22, -0.8, -1.78, -0.97, 0.0, 0.0, 0.0, 0.0, 1.76, 2.97, 0.0, -5.81, -3.79, -0.0, 0.0, -0.65, -1.72, -1.63, -0.89, 0.0, 0.0, 0.0, 0.0, -6.8, -6.8, -6.8, -8.15, -8.15, -8.15, -7.86, -7.86, -7.86, -7.59, -7.59, -7.59, -7.6, -7.6, -7.6, -7.32, -7.61, -7.32, -7.33, -6.97, -6.97, -6.7, -6.7, -6.56, -6.31, -5.64, -5.64, -5.64, -5.2, -5.0, -5.0, -5.2, -4.72, -4.05, -3.42, -2.93, -2.8, -3.3, -3.45, -3.61, -3.57, -3.57, -3.57, -3.57, -3.42, -3.45, -2.93, -2.93, -2.77, -2.9, -2.9, -2.35, -2.35, -1.69, -1.71, -1.1, -1.11, -0.57, -0.58, -0.56, -0.61, 0.0, 0.0, 0.0, 1.4, 2.99, 2.54, 2.54, 1.32, 1.84, 0.84, 0.84, 0.0, 0.76, 0.0, 0.0, 0.0, -0.89, 0.0, 0.92, 2.0, 1.01, 0.0, 0.0, 0.0, -1.75, -7.6, -7.15, -3.58, -2.53, -4.02, -3.2, -3.0, -2.49, -1.52, -2.6, 0.0, 0.0, -6.26, -6.8, -6.8, -7.81, -7.81, -7.81, -7.81, -7.59, -7.59, -7.59, -7.59, -7.59, -7.59, -7.6, -7.6, -7.6, -7.6, -7.32, -6.98, -6.71, -6.97, -6.97, -6.31, -6.31, -6.31, -5.89, -5.89, -5.64, -5.2, -5.0, -5.0, -4.54, -4.54, -4.05, -3.89, -3.39, -2.9, -2.93, -2.93, -3.82, -3.61, -3.77, -3.57, -3.57, -3.61, -3.45, -2.93, -2.77, -2.9, -3.42, -2.9, -2.9, -2.9, -2.35, -2.25, -1.71, -1.65, -1.12, -1.07, -0.59, -0.59, -0.61, 0.0, 0.0, 0.58, 1.4, 1.84, 1.75, 1.26, 1.75, 1.67, 0.8, 0.0, 0.0, 0.0, 0.0, 0.83, 0.0, 0.0, 0.0, 0.0, 0.0, -0.97, -1.83, -1.77, -4.0, -7.6, -8.48, -8.48, -6.01, -4.83, -3.91, -2.99, -3.15, -5.69, -6.4, -6.71, -4.11, -4.43, -6.71, -6.71, -7.55, -7.55, -7.55, -7.55, -7.55, -7.27, -7.27, -7.59, -7.59, -7.59, -7.3, -7.3, -7.3, -6.98, -6.7, -6.98, -6.98, -6.71, -6.33, -6.33, -6.33, -5.67, -5.67, -5.67, -5.67, -5.23, -5.23, -5.0, -5.0, -4.54, -4.54, -4.05, -4.05, -3.39, -3.39, -2.9, -3.07, -3.07, -3.61, -3.77, -3.61, -3.61, -3.45, -3.29, -2.8, -3.45, -3.91, -3.91, -3.42, -3.42, -2.9, -2.77, -2.39, -2.28, -1.75, -1.69, -1.16, -1.18, -0.61, 0.0, 0.0, 0.0, 0.0, 0.94, 0.89, 1.26, 0.89, 0.0, 0.0, 0.0, 0.0, 0.0, 0.0, 0.0, 0.0, -0.89, -1.77, -1.77, -3.07, -4.01, -3.8, -3.53, -5.72, -8.33, -8.33, -8.4, -7.51, -3.8, -4.0, -3.49, -4.83, -6.32, -7.81, -7.15, -7.15, -6.36, -6.79, -6.0, -7.55, -7.55, -7.55, -7.55, -7.55, -7.55, -7.27, -7.27, -7.27, -7.59, -7.59, -6.98, -6.98, -6.98, -6.98, -6.7, -6.7, -6.61, -6.33, -6.33, -6.33, -5.92, -5.67, -5.67, -5.23, -5.23, -5.23, -5.23, -5.23, -4.76, -4.76, -4.54, -4.54, -4.05, -3.53, -3.39, -3.42, -3.42, -3.61, -3.61, -3.61, -3.65, -3.49, -3.39, -2.8, -3.42, -4.57, -4.57, -4.38, -3.91, -3.42, -3.27, -2.93, -2.28, -2.3, -1.69, -1.71, -1.18, -0.61, 0.0, 0.0, 0.0, 0.0, 0.89, 0.84, 0.0, 0.0, 0.0, 0.0, 0.0, 0.0, 0.0, 0.0, 0.0, 0.0, 0.0, -1.77, -3.68, -4.81, -4.95, -4.66, -4.64, -7.56, -8.49, -8.05, -8.33, -8.0, -6.32, -4.83, -5.06, -5.21, -6.32, -8.77, -8.49, -8.05, -7.15, -6.94, -6.79, -7.23, -7.23, -7.55, -7.55, -7.55, -7.55, -7.55, -7.27, -7.27, -7.27, -6.97, -6.97, -6.69, -6.69, -6.98, -6.98, -6.34, -6.34, -6.34, -6.08, -6.33, -5.92, -5.92, -5.92, -5.23, -5.23, -5.23, -5.23, -5.23, -4.76, -4.57, -4.76, -4.76, -4.54, -4.05, -3.89, -3.39, -3.39, -3.42, -3.42, -3.61, -3.65, -3.97, -3.52, -4.17, -3.42, -4.57, -5.29, -5.06, -4.63, -3.94, -3.45, -3.3, -2.97, -2.3, -2.33, -1.71, -1.1, -0.61, 0.0, 0.0, 0.0, 0.0, 0.0, 0.0, 0.0, 0.0, 0.0, 0.0, 0.0, 0.0, 0.0, -1.47, -1.22, 0.0, 0.0, -1.06, -3.96, -4.87, -4.4, -4.4, -4.8, -6.95, -8.94, -8.05, -8.05, -8.33, -7.15, -6.64, -6.01, -6.01, -6.32, -9.21, -8.77, -8.33, -7.6, -6.94, -6.94, -7.51, -7.51, -7.23, -7.23, -7.23, -7.23, -7.55, -7.55, -6.97, -6.67, -6.97, -6.97, -6.97, -6.69, -6.35, -6.35, -6.35, -6.34, -6.34, -6.34, -6.08, -5.69, -5.69, -5.69, -5.92, -5.23, -5.23, -5.23, -5.23, -5.02, -4.57, -4.57, -4.57, -4.57, -4.57, -4.08, -3.89, -3.89, -3.39, -3.42, -3.42, -3.45, -3.97, -4.42, -4.6, -4.81, -3.94, -4.45, -4.71, -4.69, -4.44, -3.97, -3.49, -2.83, -2.69, -2.33, -1.81, -1.1, -0.56, -0.61, 0.0, 0.0, 0.0, 0.0, 0.0, 0.0, 0.0, 0.0, 0.0, 0.0, 0.0, -0.84, -1.47, -2.58, -1.39, 0.0, -1.3, -5.31, -6.31, -6.53, -6.05, -6.05, -6.79, -7.6, -7.5, -8.05, -8.94, -8.48, -7.44, -6.87, -6.32, -6.87, -8.77, -8.33, -7.89, -8.05, -8.05, -8.05, -7.51, -7.51, -7.51, -7.23, -7.23, -7.23, -6.95, -6.95, -6.95, -6.95, -6.67, -6.67, -6.97, -6.35, -6.35, -6.35, -6.35, -6.35, -6.34, -6.34, -6.34, -5.69, -5.69, -5.69, -5.69, -5.67, -5.23, -5.23, -5.02, -5.02, -5.02, -4.57, -4.57, -4.57, -4.57, -4.57, -4.57, -4.08, -3.89, -4.08, -3.91, -3.91, -3.94, -4.4, -5.23, -4.51, -3.42, -2.86, -2.73, -3.4, -4.05, -3.81, -3.56, -3.35, -2.71, -2.37, -1.61, -1.18, -1.18, -0.61, -0.61, -0.57, 0.0, 0.0, 0.0, 1.2, 1.2, 0.0, 0.84, 0.89, 0.0, -0.89, -2.58, -3.45, -4.05, -2.39, -2.37, -4.66, -9.44, -10.19, -8.79, -8.73, -10.4, -11.18, -10.18, -10.28, -10.28, -9.89, -9.86, -8.73, -8.37, -8.18, -9.26, -8.77, -8.49, -8.49, -8.49, -8.49, -7.17, -7.17, -7.17, -7.25, -6.95, -6.95, -6.95, -6.95, -6.95, -6.95, -6.67, -6.67, -6.35, -6.64, -6.35, -6.35, -6.35, -6.35, -6.08, -6.34, -6.34, -5.95, -5.69, -5.69, -5.69, -5.69, -5.67, -5.02, -5.02, -5.02, -5.02, -5.02, -5.02, -4.57, -4.57, -4.57, -4.57, -4.57, -4.57, -4.08, -4.08, -3.91, -3.91, -3.91, -4.57, -4.05, -3.53, -2.23, -2.28, -2.3, -2.86, -2.89, -2.73, -2.73, -2.73, -2.23, -1.73, -1.73, -1.18, -1.28, -0.65, -0.61, -0.57, 0.0, 0.0, 1.4, 2.33, 2.33, 2.4, 1.75, 0.0, -1.67, -2.57, -4.07, -4.25, -3.25, -1.76, 0.0, -1.78, -4.67, -12.33, -14.78, -16.48, -15.2, -12.96, -11.62, -11.09, -10.41, -10.05, -10.0, -10.09, -10.68, -11.02, -9.39, -8.94, -8.38, -8.38, -8.38, -7.17, -7.17, -6.92, -6.92, -6.92, -6.64, -6.64, -6.64, -6.64, -6.95, -6.95, -6.35, -6.35, -6.35, -6.35, -6.35, -6.35, -6.35, -6.35, -6.34, -6.34, -6.34, -6.34, -5.69, -5.69, -5.69, -5.69, -5.69, -5.26, -5.26, -5.26, -5.02, -5.02, -5.02, -4.57, -4.57, -4.57, -4.57, -4.57, -4.57, -4.08, -4.08, -4.08, -4.08, -4.08, -4.08, -3.39, -3.53, -2.87, -2.23, -2.25, -2.17, -2.19, -2.21, -2.37, -2.23, -1.71, -1.73, -1.18, -1.18, -0.65, -0.65, -0.61, -0.61, 0.0, 1.2, 2.46, 2.54, 2.69, 1.75, 0.0, -1.75, -3.32, -3.36, -4.25, -3.25, -1.63, 0.0, 0.0, 1.23, 0.0, 0.0, -5.4, -13.95, -14.75, -12.07, -10.84, -10.46, -10.46, -10.46, -10.79, -11.18, -11.18, -9.83, -9.83, -9.29, -9.29, -9.29, -6.92, -6.92, -6.92, -6.92, -6.92, -6.92, -6.92, -6.64, -6.64, -6.64, -6.95, -6.35, -6.35, -6.35, -6.64, -6.35, -6.35, -6.35, -6.35, -6.34, -6.34, -6.34, -6.34, -6.34, -5.69, -5.69, -5.69, -5.69, -5.26, -5.26, -5.26, -5.26, -5.02, -5.02, -4.57, -4.8, -4.6, -4.6, -4.6, -4.38, -4.57, -4.08, -4.08, -4.08, -3.91, -3.91, -4.08, -3.89, -3.53, -2.87, -2.87, -2.35, -2.25, -2.28, -1.75, -1.69, -1.69, -1.71, -1.09, -1.18, -1.18, -0.59, -0.59, -0.56, 0.0, 0.0, 1.26, 0.89, 0.0, 0.0, -0.85, -1.84, -2.57, -2.7, -2.59, -2.49, -0.82, 0.0, 0.0, 0.86, 2.13, 2.38, 1.31, 0.0, -3.24, -9.16, -11.5, -10.48, -10.09, -9.58, -10.96, -10.75, -11.06, -10.65, -10.2, -9.54, -9.54, -9.54, -6.92, -6.92, -6.92, -6.92, -6.92, -6.92, -6.92, -6.64, -6.64, -6.64, -6.95, -6.95, -6.35, -6.35, -6.64, -6.35, -6.35, -6.35, -6.35, -6.63, -6.34, -6.34, -6.34, -6.34, -6.34, -5.69, -5.69, -5.69, -5.69, -5.26, -5.26, -5.26, -5.26, -5.26, -4.8, -4.6, -4.6, -4.6, -4.6, -4.6, -4.38, -4.57, -4.08, -4.08, -3.91, -3.91, -4.08, -4.08, -3.89, -3.39, -3.39, -2.75, -2.9, -2.25, -2.28, -1.65, -1.67, -1.78, -1.69, -1.16, -1.09, -1.18, -0.56, -0.56, 0.0, 0.0, 0.0, 0.0, 0.0, -0.89, -0.85, -1.84, -1.75, -1.84, -1.76, -1.84, -1.63, -0.83, 0.0, 0.83, 1.71, 1.98, 2.3, 1.04, 0.0, -2.09, -4.32, -7.27, -7.9, -6.95, -8.18, -9.45, -10.32, -10.41, -10.41, -10.04, -10.04, -10.04, -6.92, -6.92, -6.92, -6.92, -6.92, -6.92, -6.92, -6.92, -6.64, -6.64, -6.95, -6.95, -6.67, -6.67, -6.97, -6.69, -6.69, -6.69, -6.35, -6.35, -6.63, -6.34, -6.34, -6.34, -6.34, -6.34, -5.95, -5.69, -5.69, -5.26, -5.26, -5.26, -5.26, -5.26, -4.6, -4.6, -4.6, -4.6, -4.6, -4.6, -4.6, -4.57, -4.57, -4.08, -3.91, -3.91, -4.08, -4.08, -4.08, -4.08, -3.57, -3.42, -3.42, -2.9, -2.25, -2.28, -2.28, -1.75, -1.78, -1.69, -1.71, -1.09, -1.18, -0.61, -0.53, 0.0, 0.0, 0.0, 0.0, 0.0, 0.0, -0.89, -0.93, -1.76, -1.76, -1.84, -1.69, -0.82, 0.0, 0.0, 0.83, 0.89, 2.16, 1.02, -1.02, -1.48, -2.31, -3.65, -6.4, -5.21, -5.72, -6.64, -6.64, -7.33, -8.18, -8.54, -8.54, -8.54, -6.92, -6.92, -6.92, -6.92, -6.92, -6.92, -6.92, -6.92, -6.64, -6.64, -6.95, -6.95, -6.67, -6.67, -6.97, -6.97, -6.69, -6.69, -6.69, -6.69, -6.63, -6.34, -6.34, -6.34, -6.34, -6.34, -5.95, -5.7, -5.7, -5.29, -5.04, -5.04, -5.04, -5.04, -4.6, -4.6, -4.6, -4.6, -4.6, -4.6, -4.6, -4.38, -4.57, -4.57, -4.38, -4.38, -4.08, -4.08, -4.08, -4.08, -4.08, -3.42, -3.42, -3.42, -2.93, -2.93, -2.28, -2.17, -2.3, -2.33, -2.37, -1.71, -1.73, -1.1, -1.12, -0.84, 0.0, 0.0, 0.0, 0.0, -0.85, -0.89, -0.89, -0.93, -1.84, -1.84, -1.69, -0.82, 0.0, 0.0, 0.0, 0.0, 0.0, 0.0, -2.0, -2.95, -3.11, -4.4, -5.46, -5.9, -4.98, -4.4, -3.7, -3.52, -3.52, -4.44, -4.44, -4.44, -6.92, -7.17, -6.92, -6.92, -6.92, -6.92, -6.92, -6.92, -6.92, -6.64, -6.95, -6.95, -6.95, -6.67, -6.97, -6.97, -6.97, -6.69, -6.69, -6.69, -6.35, -6.35, -6.35, -6.08, -6.08, -6.08, -5.7, -5.7, -5.7, -5.29, -5.29, -5.04, -5.04, -4.6, -4.6, -4.6, -4.6, -4.6, -4.6, -4.6, -4.6, -4.6, -4.38, -4.6, -4.6, -4.6, -4.57, -4.57, -4.08, -4.08, -4.08, -4.08, -3.91, -3.45, -3.45, -2.93, -2.8, -2.8, -2.3, -2.33, -2.21, -2.23, -2.23, -1.73, -2.29, -1.75, -0.84, 0.0, 0.0, 0.0, -0.93, -1.93, -2.95, -1.84, -1.84, -1.76, -0.89, -0.89, -0.82, 0.0, 0.0, 0.0, 0.0, -0.83, -2.15, -4.5, -4.5, -4.5, -5.06, -5.46, -5.63, -4.98, -4.0, -2.17, -2.17, -2.17, -2.17, -2.17, -7.17, -7.17, -7.17, -6.92, -6.92, -6.92, -6.92, -6.92, -6.92, -6.95, -6.95, -6.95, -6.95, -6.67, -6.97, -6.97, -6.97, -6.97, -6.69, -6.69, -6.35, -6.35, -6.35, -6.35, -6.35, -6.35, -5.7, -5.7, -5.7, -5.29, -5.29, -5.29, -5.04, -4.6, -4.6, -4.6, -4.6, -4.6, -4.6, -4.6, -4.6, -4.6, -4.6, -4.6, -4.6, -4.6, -4.6, -4.57, -4.57, -4.57, -4.08, -4.08, -3.91, -3.94, -3.45, -3.45, -3.3, -2.97, -2.83, -3.01, -2.86, -2.89, -2.73, -2.4, -2.29, -1.67, -1.75, -0.84, -0.89, -0.89, -0.94, -2.04, -3.99, -4.6, -2.71, -1.76, -1.68, -0.85, -0.89, -0.85, -0.82, -0.82, -0.83, -1.65, -3.55, -4.6, -5.13, -5.38, -5.38, -4.83, -5.49, -5.36, -5.46, -4.0, -3.14, -3.14, -3.14, -3.14, -7.44, -7.44, -7.17, -7.17, -6.92, -6.92, -6.92, -6.92, -6.92, -6.95, -6.95, -6.95, -6.95, -6.67, -6.67, -6.97, -6.97, -6.97, -6.97, -6.69, -6.35, -6.35, -6.35, -6.35, -6.35, -6.35, -5.98, -5.98, -5.7, -5.29, -5.29, -5.29, -5.29, -5.29, -4.6, -4.6, -4.6, -4.6, -4.6, -4.6, -4.6, -4.6, -4.6, -4.6, -4.6, -4.6, -4.6, -4.6, -4.57, -4.57, -4.57, -4.08, -3.91, -4.12, -3.94, -3.45, -3.49, -3.49, -3.49, -3.52, -2.86, -2.89, -2.89, -2.73, -2.96, -2.16, -2.69, -2.54, -1.75, 0.0, -0.94, -1.94, -2.97, -3.63, -4.6, -3.65, -2.7, -2.47, -2.59, -1.62, -1.69, -1.63, -1.58, -3.16, -3.68, -3.61, -5.13, -5.94, -5.94, -5.13, -4.96, -5.36, -5.46, -5.46, -4.2, -4.2, -4.2, -4.2, -7.44, -7.44, -7.44, -7.17, -7.17, -6.92, -6.92, -6.92, -6.92, -7.25, -6.95, -6.95, -6.95, -6.95, -6.67, -6.67, -6.97, -6.97, -6.97, -6.97, -6.64, -6.35, -6.35, -6.35, -6.35, -6.35, -5.98, -5.72, -5.72, -5.46, -5.06, -5.29, -5.29, -5.29, -5.29, -5.29, -4.84, -4.6, -4.6, -4.6, -4.6, -4.6, -4.6, -4.6, -4.6, -4.6, -4.6, -4.6, -4.6, -4.6, -4.57, -4.57, -4.12, -4.12, -3.94, -3.94, -3.97, -3.49, -3.49, -3.52, -3.35, -3.56, -3.37, -3.37, -2.75, -2.8, -2.16, -1.67, -0.85, 0.0, -0.89, -0.93, -0.93, -0.99, -0.94, -4.34, -3.49, -3.36, -3.36, -3.51, -2.49, -2.6, -3.09, -3.07, -3.11, -4.68, -5.28, -5.94, -6.01, -6.32, -5.21, -5.1, -5.2, -5.46, -5.46, -4.74, -4.74, -4.74, -7.44, -7.44, -7.44, -7.17, -7.17, -7.17, -6.92, -6.92, -6.92, -7.25, -6.95, -6.95, -6.95, -6.95, -6.95, -6.67, -6.67, -6.67, -6.67, -6.97, -6.64, -6.64, -6.35, -6.35, -6.35, -6.08, -6.08, -5.72, -5.72, -5.72, -5.46, -5.06, -5.06, -5.29, -5.29, -5.29, -5.29, -5.29, -5.04, -5.04, -5.04, -5.04, -5.04, -5.04, -5.04, -5.04, -5.04, -4.6, -4.6, -4.6, -4.6, -4.6, -4.6, -4.6, -3.94, -3.94, -4.16, -3.97, -3.97, -4.0, -4.0, -3.35, -3.56, -3.37, -3.4, -3.42, -2.8, -2.16, -1.67, -1.75, -0.93, 0.0, 0.0, 0.0, 0.0, 0.0, -1.75, -2.47, -3.51, -3.51, -3.51, -3.39, -3.0, -3.65, -3.55, -4.92, -6.04, -6.32, -6.06, -6.7, -6.39, -5.3, -5.53, -5.82, -5.82, -5.82, -5.82, -5.82, -7.44, -7.44, -7.44, -7.44, -7.17, -7.17, -6.92, -6.92, -6.92, -6.92, -7.25, -6.95, -6.95, -6.95, -6.95, -6.95, -6.67, -6.67, -6.67, -6.67, -6.35, -6.35, -6.64, -6.64, -6.08, -6.08, -6.08, -6.08, -5.72, -5.72, -5.72, -5.46, -5.06, -5.29, -5.29, -5.29, -5.29, -5.29, -5.29, -5.04, -5.04, -5.04, -5.04, -5.04, -5.04, -5.04, -5.04, -5.04, -5.04, -4.6, -4.6, -4.6, -4.6, -4.6, -4.4, -4.63, -4.16, -4.16, -3.97, -3.97, -4.0, -4.0, -4.03, -4.03, -3.81, -3.4, -3.45, -2.82, -2.32, -2.57, -1.84, -0.93, -0.98, 0.0, 0.0, 0.0, 0.0, -0.85, -1.62, -2.49, -3.25, -3.39, -2.71, -3.65, -3.94, -5.06, -6.32, -6.39, -6.7, -7.03, -6.7, -6.06, -6.06, -5.82, -5.82, -6.11, -6.11, -6.11, -7.44, -7.44, -7.44, -7.44, -7.17, -7.17, -6.92, -6.92, -6.92, -6.92, -7.25, -6.95, -6.95, -6.95, -6.95, -6.95, -6.95, -6.67, -6.67, -6.67, -6.67, -6.35, -6.35, -6.35, -6.35, -6.35, -6.35, -6.08, -6.08, -5.72, -5.72, -5.72, -5.72, -5.7, -5.29, -5.29, -5.29, -5.29, -5.29, -5.04, -5.04, -5.04, -5.04, -5.04, -5.04, -5.04, -5.04, -5.04, -5.04, -5.04, -5.04, -4.6, -4.6, -4.6, -4.63, -4.63, -4.63, -4.63, -4.42, -4.42, -4.2, -4.0, -4.24, -4.03, -4.03, -4.05, -3.84, -3.45, -3.72, -3.63, -2.97, -2.04, -2.04, -1.04, 0.0, -0.89, -1.76, -0.85, -1.76, -2.49, -2.49, -2.6, -2.41, -3.18, -3.92, -4.2, -6.06, -7.07, -7.03, -7.35, -7.03, -6.7, -6.7, -6.45, -6.79, -6.32, -6.32, -6.32, -7.44, -7.44, -7.44, -7.44, -7.44, -6.92, -6.92, -6.92, -6.92, -6.92, -7.25, -7.25, -6.95, -6.95, -6.95, -6.95, -6.95, -6.95, -6.67, -6.67, -6.67, -6.67, -6.67, -6.35, -6.35, -6.35, -6.35, -6.35, -6.08, -6.08, -6.08, -5.72, -5.72, -5.72, -5.7, -5.7, -5.7, -5.29, -5.29, -5.29, -5.29, -5.29, -5.29, -5.29, -5.29, -5.29, -5.29, -5.29, -5.29, -5.29, -5.29, -4.6, -4.84, -4.63, -4.63, -4.63, -4.63, -4.63, -4.63, -4.42, -4.66, -4.44, -4.44, -4.69, -4.45, -4.46, -4.05, -4.1, -4.1, -4.98, -3.81, -2.97, -1.94, -1.94, -1.94, -0.93, -0.85, -1.68, -2.47, -2.39, -2.49, -2.6, -2.41, -2.92, -2.59, -3.36, -4.26, -7.03, -7.89, -7.47, -7.47, -7.2, -6.7, -7.2, -6.45, -6.45, -6.45, -6.45, -7.44, -7.44, -7.44, -7.44, -7.44, -6.92, -6.92, -6.92, -6.92, -6.92, -6.92, -6.92, -6.64, -6.64, -6.64, -6.95, -6.95, -6.95, -6.95, -6.67, -6.67, -6.67, -6.67, -6.67, -6.67, -6.35, -6.35, -6.35, -6.35, -6.35, -6.08, -6.08, -5.72, -5.72, -5.72, -5.72, -5.46, -5.7, -5.29, -5.29, -5.29, -5.29, -5.29, -5.29, -5.29, -5.29, -5.29, -5.29, -5.29, -5.29, -5.29, -5.29, -5.06, -4.63, -4.63, -4.63, -4.63, -4.63, -4.63, -4.63, -4.66, -4.66, -4.44, -4.69, -4.45, -4.71, -4.46, -4.73, -5.03, -4.73, -3.6, -2.83, -1.94, -1.94, -0.99, -0.93, 0.0, 0.0, 0.0, -1.62, -1.69, -1.63, -1.63, -1.9, -2.53, -2.72, -2.82, -4.56, -6.64, -7.71, -7.89, -7.6, -7.03, -6.82, -6.82, -6.79, -6.79, -6.79, -7.44, -7.44, -7.44, -7.44, -7.21, -6.92, -6.92, -6.92, -6.92, -6.92, -6.92, -6.92, -6.92, -6.64, -6.64, -6.95, -6.95, -6.95, -6.95, -6.95, -6.67, -6.67, -6.67, -6.67, -6.67, -6.67, -6.67, -6.35, -6.35, -6.35, -6.35, -6.08, -6.08, -5.72, -5.72, -5.72, -5.72, -5.72, -5.06, -5.29, -5.29, -5.29, -5.06, -5.06, -5.06, -5.06, -5.06, -5.06, -5.06, -5.06, -5.06, -5.06, -5.06, -5.06, -5.06, -5.06, -5.06, -5.06, -5.06, -5.06, -4.66, -4.66, -4.66, -4.69, -4.69, -4.71, -4.71, -4.73, -4.73, -4.73, -4.28, -3.65, -1.94, 0.0, 0.0, 0.0, 0.0, 0.0, 0.0, 0.0, -0.85, -1.63, -1.63, -1.84, -2.4, -2.72, -3.22, -3.82, -4.96, -6.79, -7.89, -7.89, -7.6, -7.82, -8.21, -7.51, -7.51, -7.51, -7.44, -7.44, -7.44, -7.44, -7.21, -7.21, -6.92, -6.92, -6.92, -6.92, -6.92, -6.92, -6.92, -6.64, -6.64, -6.95, -6.95, -6.95, -6.95, -6.95, -6.95, -6.67, -6.67, -6.67, -6.67, -6.67, -6.67, -6.67, -6.67, -6.35, -6.35, -6.35, -6.35, -6.08, -5.72, -5.72, -5.72, -5.72, -5.72, -5.06, -5.06, -5.06, -5.06, -5.06, -5.06, -5.06, -5.06, -5.06, -5.06, -5.06, -5.06, -5.06, -5.06, -5.06, -5.06, -5.06, -5.06, -5.06, -5.06, -5.32, -5.32, -5.08, -5.08, -5.09, -4.69, -4.71, -4.71, -5.0, -4.73, -4.73, -4.73, -3.6, -2.4, -1.39, 0.0, 0.0, 0.0, 0.0, -0.81, -0.85, -1.68, -1.69, -1.76, -2.71, -2.24, -2.59, -3.65, -3.14, -3.82, -5.21, -7.47, -9.4, -9.13, -9.55, -8.99, -7.87, -7.87, -7.87, -7.44, -7.44, -7.44, -7.44, -7.21, -7.21, -6.92, -6.92, -6.92, -6.92, -6.92, -6.92, -6.92, -6.64, -6.64, -6.95, -6.95, -6.95, -6.95, -6.95, -6.95, -6.67, -6.67, -6.67, -6.67, -6.67, -6.67, -6.67, -6.67, -6.35, -6.35, -6.35, -6.35, -6.08, -5.72, -5.72, -5.72, -5.72, -5.72, -5.06, -5.06, -5.06, -5.06, -5.06, -5.06, -5.06, -5.06, -5.06, -5.06, -5.06, -5.06, -5.06, -5.06, -5.06, -5.06, -5.06, -5.06, -5.06, -5.06, -5.32, -5.32, -5.08, -5.08, -5.09, -4.69, -4.71, -4.71, -5.0, -4.73, -4.73, -4.73, -3.6, -2.4, -1.39, 0.0, 0.0, 0.0, 0.0, -0.81, -0.85, -1.68, -2.39, -2.6, -2.71, -2.81, -3.28, -3.65, -3.52, -4.28, -4.32, -5.43, -8.49, -10.21, -10.18, -9.8, -8.72, -8.72, -8.72]}]